| time (UTC) | temp C | wind direction | speed KPH | gust KPH | rain 1hr cm | rain 24hr cm | rain mn cm | humidity % | barometer mb |
| 20260506092730 | 16 | 274 | 0.0 | 3.2 | 0.00 | 0.00 | 0.00 | 43 | 1005.5 |
| 20260506092619 | 16 | 288 | 0.0 | 3.2 | 0.00 | 0.00 | 0.00 | 43 | 1005.5 |
| 20260506092518 | 16 | 250 | 0.0 | 3.2 | 0.00 | 0.00 | 0.00 | 43 | 1005.6 |
| 20260506092421 | 16 | 257 | 0.0 | 3.2 | 0.00 | 0.00 | 0.00 | 43 | 1005.6 |
| 20260506092319 | 16 | 253 | 0.0 | 3.2 | 0.00 | 0.00 | 0.00 | 43 | 1005.6 |
| 20260506092216 | 16 | 279 | 0.0 | 6.4 | 0.00 | 0.00 | 0.00 | 43 | 1005.6 |
| 20260506092110 | 16 | 271 | 0.0 | 6.4 | 0.00 | 0.00 | 0.00 | 43 | 1005.6 |
| 20260506092012 | 16 | 274 | 0.0 | 6.4 | 0.00 | 0.00 | 0.00 | 43 | 1005.6 |
| 20260506091912 | 16 | 306 | 0.0 | 6.4 | 0.00 | 0.00 | 0.00 | 43 | 1005.6 |
| 20260506091813 | 16 | 278 | 0.0 | 6.4 | 0.00 | 0.00 | 0.00 | 43 | 1005.6 |
| 20260506091723 | 16 | 294 | 0.0 | 6.4 | 0.00 | 0.00 | 0.00 | 43 | 1005.6 |
| 20260506091600 | 16 | 277 | 1.6 | 6.4 | 0.00 | 0.00 | 0.00 | 43 | 1005.6 |
| 20260506091502 | 16 | 281 | 1.6 | 6.4 | 0.00 | 0.00 | 0.00 | 43 | 1005.6 |
| 20260506091338 | 16 | 279 | 1.6 | 6.4 | 0.00 | 0.00 | 0.00 | 43 | 1005.6 |
| 20260506091235 | 16 | 281 | 1.6 | 6.4 | 0.00 | 0.00 | 0.00 | 43 | 1005.6 |
| 20260506091135 | 16 | 271 | 1.6 | 6.4 | 0.00 | 0.00 | 0.00 | 43 | 1005.4 |
| 20260506091024 | 16 | 247 | 1.6 | 6.4 | 0.00 | 0.00 | 0.00 | 44 | 1005.5 |
| 20260506090916 | 16 | 293 | 1.6 | 8.0 | 0.00 | 0.00 | 0.00 | 44 | 1005.5 |
| 20260506090813 | 16 | 255 | 1.6 | 8.0 | 0.00 | 0.00 | 0.00 | 44 | 1005.5 |
| 20260506090714 | 16 | 249 | 1.6 | 8.0 | 0.00 | 0.00 | 0.00 | 44 | 1005.5 |
| 20260506090612 | 16 | 279 | 1.6 | 8.0 | 0.00 | 0.00 | 0.00 | 44 | 1005.5 |
| 20260506090517 | 16 | 254 | 1.6 | 8.0 | 0.00 | 0.00 | 0.00 | 44 | 1005.5 |
| 20260506090408 | 16 | 263 | 1.6 | 8.0 | 0.00 | 0.00 | 0.00 | 44 | 1005.5 |
| 20260506090315 | 16 | 242 | 1.6 | 8.0 | 0.00 | 0.00 | 0.00 | 44 | 1005.5 |
| 20260506090208 | 16 | 263 | 1.6 | 8.0 | 0.00 | 0.00 | 0.00 | 44 | 1005.5 |
| 20260506090109 | 16 | 301 | 3.2 | 8.0 | 0.00 | 0.00 | 0.00 | 44 | 1005.5 |
| 20260506090001 | 16 | 279 | 3.2 | 8.0 | 0.00 | 0.00 | 0.00 | 44 | 1005.5 |
| 20260506085906 | 16 | 279 | 3.2 | 8.0 | 0.00 | 0.00 | 0.00 | 44 | 1005.5 |
| 20260506085804 | 16 | 246 | 3.2 | 8.0 | 0.00 | 0.00 | 0.00 | 44 | 1005.5 |
| 20260506085655 | 16 | 276 | 3.2 | 8.0 | 0.00 | 0.00 | 0.00 | 44 | 1005.1 |
| 20260506085554 | 16 | 268 | 3.2 | 8.0 | 0.00 | 0.00 | 0.00 | 44 | 1005.1 |
| 20260506085500 | 16 | 256 | 3.2 | 8.0 | 0.00 | 0.00 | 0.00 | 45 | 1005.1 |
| 20260506085352 | 16 | 261 | 3.2 | 8.0 | 0.00 | 0.00 | 0.00 | 45 | 1005.1 |
| 20260506085252 | 16 | 267 | 3.2 | 9.7 | 0.00 | 0.00 | 0.00 | 45 | 1005.1 |
| 20260506085151 | 16 | 241 | 3.2 | 9.7 | 0.00 | 0.00 | 0.00 | 45 | 1005.1 |
| 20260506085054 | 16 | 270 | 3.2 | 9.7 | 0.00 | 0.00 | 0.00 | 45 | 1005.1 |
| 20260506084951 | 16 | 283 | 3.2 | 9.7 | 0.00 | 0.00 | 0.00 | 45 | 1005.1 |
| 20260506084842 | 16 | 273 | 3.2 | 9.7 | 0.00 | 0.00 | 0.00 | 45 | 1005.1 |
| 20260506084738 | 16 | 269 | 4.8 | 9.7 | 0.00 | 0.00 | 0.00 | 45 | 1005.1 |
| 20260506084636 | 17 | 254 | 4.8 | 9.7 | 0.00 | 0.00 | 0.00 | 45 | 1005.2 |
| 20260506084533 | 17 | 259 | 4.8 | 9.7 | 0.00 | 0.00 | 0.00 | 45 | 1005.2 |
| 20260506084432 | 17 | 281 | 4.8 | 9.7 | 0.00 | 0.00 | 0.00 | 45 | 1005.2 |
| 20260506084330 | 17 | 268 | 4.8 | 11.3 | 0.00 | 0.00 | 0.00 | 45 | 1005.2 |
| 20260506084223 | 17 | 287 | 4.8 | 12.9 | 0.00 | 0.00 | 0.00 | 45 | 1005.6 |
| 20260506084124 | 17 | 275 | 4.8 | 12.9 | 0.00 | 0.00 | 0.00 | 45 | 1005.6 |
| 20260506084023 | 17 | 281 | 4.8 | 12.9 | 0.00 | 0.00 | 0.00 | 45 | 1005.6 |
| 20260506083911 | 17 | 287 | 4.8 | 12.9 | 0.00 | 0.00 | 0.00 | 45 | 1005.6 |
| 20260506083813 | 17 | 287 | 4.8 | 12.9 | 0.00 | 0.00 | 0.00 | 45 | 1005.6 |
| 20260506083716 | 17 | 228 | 4.8 | 12.9 | 0.00 | 0.00 | 0.00 | 46 | 1005.5 |
| 20260506083608 | 16 | 259 | 4.8 | 12.9 | 0.00 | 0.00 | 0.00 | 46 | 1005.5 |
| 20260506083515 | 16 | 281 | 4.8 | 12.9 | 0.00 | 0.00 | 0.00 | 46 | 1005.5 |
| 20260506083414 | 16 | 252 | 4.8 | 12.9 | 0.00 | 0.00 | 0.00 | 46 | 1005.5 |
| 20260506083307 | 16 | 282 | 3.2 | 12.9 | 0.00 | 0.00 | 0.00 | 47 | 1005.4 |
| 20260506083225 | 16 | 253 | 3.2 | 12.9 | 0.00 | 0.00 | 0.00 | 48 | 1005.4 |
| 20260506083109 | 16 | 250 | 3.2 | 12.9 | 0.00 | 0.00 | 0.00 | 49 | 1005.4 |
| 20260506083002 | 16 | 271 | 3.2 | 12.9 | 0.00 | 0.00 | 0.00 | 49 | 1005.4 |
| 20260506082903 | 16 | 242 | 3.2 | 12.9 | 0.00 | 0.00 | 0.00 | 49 | 1005.4 |
| 20260506082757 | 16 | 239 | 3.2 | 11.3 | 0.00 | 0.00 | 0.00 | 49 | 1005.4 |
| 20260506082657 | 16 | 242 | 3.2 | 11.3 | 0.00 | 0.00 | 0.00 | 49 | 1005.1 |
| 20260506082559 | 16 | 269 | 3.2 | 11.3 | 0.00 | 0.00 | 0.00 | 48 | 1005.1 |
| 20260506082450 | 16 | 264 | 3.2 | 11.3 | 0.00 | 0.00 | 0.00 | 48 | 1005.1 |
| 20260506082339 | 16 | 259 | 3.2 | 11.3 | 0.00 | 0.00 | 0.00 | 48 | 1005.1 |
| 20260506082241 | 16 | 257 | 1.6 | 11.3 | 0.00 | 0.00 | 0.00 | 48 | 1005.1 |
| 20260506082207 | 16 | 267 | 1.6 | 11.3 | 0.00 | 0.00 | 0.00 | 48 | 1005.1 |
| 20260506082038 | 16 | 243 | 1.6 | 8.0 | 0.00 | 0.00 | 0.00 | 48 | 1005.1 |
| 20260506081942 | 16 | 250 | 1.6 | 8.0 | 0.00 | 0.00 | 0.00 | 48 | 1005.1 |
| 20260506081840 | 16 | 263 | 1.6 | 8.0 | 0.00 | 0.00 | 0.00 | 48 | 1005.1 |
| 20260506081812 | 16 | 267 | 1.6 | 6.4 | 0.00 | 0.00 | 0.00 | 48 | 1005.1 |
| 20260506081634 | 16 | 257 | 1.6 | 8.0 | 0.00 | 0.00 | 0.00 | 48 | 1005.1 |
| 20260506081538 | 16 | 244 | 1.6 | 8.0 | 0.00 | 0.00 | 0.00 | 48 | 1005.1 |
| 20260506081425 | 16 | 233 | 1.6 | 8.0 | 0.00 | 0.00 | 0.00 | 48 | 1005.1 |
| 20260506081326 | 16 | 250 | 1.6 | 8.0 | 0.00 | 0.00 | 0.00 | 48 | 1005.1 |
| 20260506081226 | 17 | 243 | 1.6 | 8.0 | 0.00 | 0.00 | 0.00 | 48 | 1005.2 |
| 20260506081156 | 17 | 252 | 0.0 | 8.0 | 0.00 | 0.00 | 0.00 | 48 | 1005.2 |
| 20260506081022 | 17 | 245 | 0.0 | 8.0 | 0.00 | 0.00 | 0.00 | 48 | 1005.2 |
| 20260506080910 | 17 | 241 | 0.0 | 8.0 | 0.00 | 0.00 | 0.00 | 48 | 1005.2 |
| 20260506080815 | 17 | 248 | 0.0 | 8.0 | 0.00 | 0.00 | 0.00 | 48 | 1005.2 |
| 20260506080710 | 17 | 239 | 0.0 | 3.2 | 0.00 | 0.00 | 0.00 | 48 | 1005.2 |
| 20260506080611 | 17 | 236 | 0.0 | 3.2 | 0.00 | 0.00 | 0.00 | 48 | 1005.4 |
| 20260506080521 | 17 | 223 | 0.0 | 3.2 | 0.00 | 0.00 | 0.00 | 48 | 1005.4 |
| 20260506080402 | 17 | 235 | 0.0 | 1.6 | 0.00 | 0.00 | 0.00 | 48 | 1005.4 |
| 20260506080306 | 17 | 250 | 0.0 | 1.6 | 0.00 | 0.00 | 0.00 | 47 | 1005.4 |
| 20260506080150 | 17 | 262 | 0.0 | 1.6 | 0.00 | 0.00 | 0.00 | 47 | 1005.4 |
| 20260506080118 | 17 | 216 | 0.0 | 1.6 | 0.00 | 0.00 | 0.00 | 47 | 1005.4 |
| 20260506073511 | 17 | 232 | 1.6 | 9.7 | 0.00 | 0.00 | 0.00 | 46 | 1005.1 |
| 20260506073408 | 17 | 244 | 1.6 | 9.7 | 0.00 | 0.00 | 0.00 | 46 | 1005.1 |
| 20260506073307 | 17 | 220 | 1.6 | 6.4 | 0.00 | 0.00 | 0.00 | 46 | 1005.1 |
| 20260506073203 | 17 | 236 | 1.6 | 6.4 | 0.00 | 0.00 | 0.00 | 46 | 1005.1 |
| 20260506073100 | 17 | 234 | 0.0 | 6.4 | 0.00 | 0.00 | 0.00 | 47 | 1005.1 |
| 20260506072952 | 17 | 248 | 0.0 | 6.4 | 0.00 | 0.00 | 0.00 | 46 | 1005.1 |
| 20260506072859 | 17 | 246 | 0.0 | 6.4 | 0.00 | 0.00 | 0.00 | 46 | 1005.1 |
| 20260506072759 | 17 | 249 | 0.0 | 6.4 | 0.00 | 0.00 | 0.00 | 46 | 1005.1 |
| 20260506072637 | 17 | 244 | 0.0 | 6.4 | 0.00 | 0.00 | 0.00 | 46 | 1004.8 |
| 20260506072539 | 18 | 233 | 0.0 | 6.4 | 0.00 | 0.00 | 0.00 | 46 | 1004.8 |
| 20260506072439 | 17 | 254 | 0.0 | 6.4 | 0.00 | 0.00 | 0.00 | 47 | 1004.8 |
| 20260506072337 | 17 | 247 | 0.0 | 3.2 | 0.00 | 0.00 | 0.00 | 47 | 1004.8 |
| 20260506072246 | 18 | 242 | 0.0 | 3.2 | 0.00 | 0.00 | 0.00 | 47 | 1004.8 |
| 20260506072142 | 18 | 215 | 1.6 | 9.7 | 0.00 | 0.00 | 0.00 | 47 | 1004.8 |
| 20260506072109 | 18 | 246 | 1.6 | 9.7 | 0.00 | 0.00 | 0.00 | 46 | 1004.8 |
| 20260506072029 | 18 | 246 | 1.6 | 9.7 | 0.00 | 0.00 | 0.00 | 46 | 1004.8 |
| 20260506071920 | 18 | 198 | 1.6 | 9.7 | 0.00 | 0.00 | 0.00 | 46 | 1004.8 |
| 20260506071822 | 18 | 221 | 1.6 | 9.7 | 0.00 | 0.00 | 0.00 | 46 | 1004.9 |
| 20260506071716 | 18 | 240 | 1.6 | 9.7 | 0.00 | 0.00 | 0.00 | 46 | 1004.9 |
| 20260506071614 | 18 | 225 | 1.6 | 9.7 | 0.00 | 0.00 | 0.00 | 46 | 1004.9 |
| 20260506071514 | 18 | 224 | 1.6 | 9.7 | 0.00 | 0.00 | 0.00 | 45 | 1005.0 |
| 20260506071411 | 18 | 232 | 1.6 | 9.7 | 0.00 | 0.00 | 0.00 | 45 | 1005.0 |
| 20260506071308 | 18 | 232 | 1.6 | 9.7 | 0.00 | 0.00 | 0.00 | 44 | 1005.0 |
| 20260506071213 | 18 | 211 | 1.6 | 9.7 | 0.00 | 0.00 | 0.00 | 44 | 1005.9 |
| 20260506071110 | 18 | 225 | 1.6 | 9.7 | 0.00 | 0.00 | 0.00 | 43 | 1005.9 |
| 20260506071013 | 18 | 234 | 1.6 | 9.7 | 0.00 | 0.00 | 0.00 | 43 | 1005.9 |
| 20260506070911 | 18 | 236 | 1.6 | 9.7 | 0.00 | 0.00 | 0.00 | 43 | 1005.8 |
| 20260506070808 | 18 | 240 | 1.6 | 9.7 | 0.00 | 0.00 | 0.00 | 43 | 1005.8 |
| 20260506070714 | 18 | 217 | 1.6 | 9.7 | 0.00 | 0.00 | 0.00 | 43 | 1005.8 |
| 20260506070613 | 18 | 229 | 1.6 | 9.7 | 0.00 | 0.00 | 0.00 | 44 | 1005.7 |
| 20260506070511 | 18 | 220 | 1.6 | 9.7 | 0.00 | 0.00 | 0.00 | 44 | 1005.7 |
| 20260506070342 | 18 | 244 | 0.0 | 9.7 | 0.00 | 0.00 | 0.00 | 45 | 1005.7 |
| 20260506070314 | 18 | 244 | 0.0 | 6.4 | 0.00 | 0.00 | 0.00 | 45 | 1005.6 |
| 20260506070137 | 18 | 267 | 0.0 | 6.4 | 0.00 | 0.00 | 0.00 | 46 | 1005.6 |
| 20260506062446 | 17 | 197 | 0.0 | 4.8 | 0.00 | 0.00 | 0.00 | 53 | 1005.2 |
| 20260506062408 | 17 | 187 | 0.0 | 3.2 | 0.00 | 0.00 | 0.00 | 53 | 1005.2 |
| 20260506062244 | 17 | 193 | 0.0 | 3.2 | 0.00 | 0.00 | 0.00 | 53 | 1005.4 |
| 20260506062136 | 17 | 202 | 0.0 | 1.6 | 0.00 | 0.00 | 0.00 | 52 | 1005.4 |
| 20260506062026 | 17 | 207 | 0.0 | 8.0 | 0.00 | 0.00 | 0.00 | 51 | 1005.4 |
| 20260506061923 | 17 | 219 | 0.0 | 8.0 | 0.00 | 0.00 | 0.00 | 51 | 1005.4 |
| 20260506061825 | 17 | 209 | 0.0 | 8.0 | 0.00 | 0.00 | 0.00 | 51 | 1005.4 |
| 20260506061713 | 17 | 221 | 0.0 | 8.0 | 0.00 | 0.00 | 0.00 | 50 | 1005.4 |
| 20260506061611 | 17 | 205 | 0.0 | 8.0 | 0.00 | 0.00 | 0.00 | 50 | 1005.4 |
| 20260506061517 | 17 | 208 | 1.6 | 8.0 | 0.00 | 0.00 | 0.00 | 50 | 1005.4 |
| 20260506061413 | 17 | 193 | 1.6 | 9.7 | 0.00 | 0.00 | 0.00 | 50 | 1005.4 |
| 20260506061308 | 17 | 217 | 1.6 | 9.7 | 0.00 | 0.00 | 0.00 | 50 | 1005.4 |
| 20260506061208 | 17 | 249 | 1.6 | 9.7 | 0.00 | 0.00 | 0.00 | 50 | 1005.4 |
| 20260506061108 | 17 | 227 | 1.6 | 9.7 | 0.00 | 0.00 | 0.00 | 50 | 1005.4 |
| 20260506061001 | 17 | 216 | 1.6 | 9.7 | 0.00 | 0.00 | 0.00 | 50 | 1005.4 |
| 20260506060853 | 17 | 234 | 1.6 | 9.7 | 0.00 | 0.00 | 0.00 | 50 | 1005.4 |
| 20260506060746 | 17 | 239 | 1.6 | 9.7 | 0.00 | 0.00 | 0.00 | 50 | 1005.4 |
| 20260506060641 | 17 | 256 | 1.6 | 9.7 | 0.00 | 0.00 | 0.00 | 50 | 1005.4 |
| 20260506060535 | 17 | 255 | 1.6 | 9.7 | 0.00 | 0.00 | 0.00 | 50 | 1005.4 |
| 20260506060431 | 17 | 258 | 1.6 | 6.4 | 0.00 | 0.00 | 0.00 | 50 | 1005.4 |
| 20260506060318 | 17 | 250 | 1.6 | 8.0 | 0.00 | 0.00 | 0.00 | 50 | 1005.4 |
| 20260506060223 | 17 | 233 | 1.6 | 8.0 | 0.00 | 0.00 | 0.00 | 50 | 1005.5 |
| 20260506060117 | 17 | 242 | 3.2 | 8.0 | 0.00 | 0.00 | 0.00 | 50 | 1005.5 |
| 20260506051412 | 17 | 225 | 0.0 | 4.8 | 0.00 | 0.00 | 0.00 | 50 | 1005.4 |
| 20260506051315 | 17 | 225 | 0.0 | 4.8 | 0.00 | 0.00 | 0.00 | 50 | 1005.4 |
| 20260506051213 | 17 | 225 | 0.0 | 4.8 | 0.00 | 0.00 | 0.00 | 51 | 1005.4 |
| 20260506051107 | 17 | 232 | 0.0 | 4.8 | 0.00 | 0.00 | 0.00 | 51 | 1005.4 |
| 20260506051017 | 17 | 217 | 0.0 | 4.8 | 0.00 | 0.00 | 0.00 | 51 | 1005.4 |
| 20260506050910 | 17 | 219 | 0.0 | 4.8 | 0.00 | 0.00 | 0.00 | 51 | 1005.4 |
| 20260506050748 | 17 | 209 | 0.0 | 4.8 | 0.00 | 0.00 | 0.00 | 51 | 1005.4 |
| 20260506050648 | 17 | 218 | 0.0 | 4.8 | 0.00 | 0.00 | 0.00 | 51 | 1005.4 |
| 20260506050552 | 17 | 209 | 0.0 | 4.8 | 0.00 | 0.00 | 0.00 | 51 | 1005.4 |
| 20260506050445 | 17 | 219 | 0.0 | 4.8 | 0.00 | 0.00 | 0.00 | 51 | 1005.4 |
| 20260506050338 | 17 | 221 | 0.0 | 3.2 | 0.00 | 0.00 | 0.00 | 51 | 1005.4 |
| 20260506050239 | 17 | 194 | 0.0 | 3.2 | 0.00 | 0.00 | 0.00 | 50 | 1005.4 |
| 20260506050138 | 17 | 236 | 0.0 | 1.6 | 0.00 | 0.00 | 0.00 | 50 | 1005.4 |
| 20260506045134 | 17 | 239 | 0.0 | 0.0 | 0.00 | 0.00 | 0.00 | 50 | 1005.0 |
| 20260506045022 | 17 | 238 | 0.0 | 0.0 | 0.00 | 0.00 | 0.00 | 51 | 1005.1 |
| 20260506044912 | 17 | 239 | 0.0 | 0.0 | 0.00 | 0.00 | 0.00 | 50 | 1005.0 |
| 20260506044821 | 17 | 239 | 0.0 | 0.0 | 0.00 | 0.00 | 0.00 | 50 | 1005.0 |
| 20260506044712 | 17 | 239 | 0.0 | 0.0 | 0.00 | 0.00 | 0.00 | 50 | 1005.0 |
| 20260506044611 | 18 | 239 | 0.0 | 0.0 | 0.00 | 0.00 | 0.00 | 50 | 1005.1 |
| 20260506044505 | 18 | 238 | 0.0 | 0.0 | 0.00 | 0.00 | 0.00 | 50 | 1005.1 |
| 20260506044358 | 18 | 238 | 0.0 | 0.0 | 0.00 | 0.00 | 0.00 | 50 | 1005.1 |
| 20260506044301 | 18 | 252 | 0.0 | 0.0 | 0.00 | 0.00 | 0.00 | 50 | 1005.1 |
| 20260506044139 | 18 | 254 | 0.0 | 0.0 | 0.00 | 0.00 | 0.00 | 50 | 1005.0 |
| 20260506044029 | 18 | 254 | 0.0 | 0.0 | 0.00 | 0.00 | 0.00 | 50 | 1005.0 |
| 20260506043923 | 18 | 255 | 0.0 | 0.0 | 0.00 | 0.00 | 0.00 | 50 | 1005.0 |
| 20260506043813 | 18 | 254 | 0.0 | 0.0 | 0.00 | 0.00 | 0.00 | 49 | 1005.0 |
| 20260506043712 | 18 | 245 | 0.0 | 0.0 | 0.00 | 0.00 | 0.00 | 49 | 1005.0 |
| 20260506043616 | 18 | 227 | 0.0 | 0.0 | 0.00 | 0.00 | 0.00 | 49 | 1005.1 |
| 20260506043513 | 18 | 227 | 0.0 | 0.0 | 0.00 | 0.00 | 0.00 | 49 | 1005.1 |
| 20260506043410 | 18 | 226 | 0.0 | 1.6 | 0.00 | 0.00 | 0.00 | 49 | 1005.1 |
| 20260506043242 | 18 | 220 | 0.0 | 1.6 | 0.00 | 0.00 | 0.00 | 49 | 1005.1 |
| 20260506043133 | 18 | 136 | 0.0 | 1.6 | 0.00 | 0.00 | 0.00 | 49 | 1005.1 |
| 20260506043036 | 18 | 134 | 0.0 | 1.6 | 0.00 | 0.00 | 0.00 | 49 | 1005.1 |
| 20260506042934 | 18 | 134 | 0.0 | 1.6 | 0.00 | 0.00 | 0.00 | 49 | 1005.1 |
| 20260506042835 | 18 | 134 | 0.0 | 1.6 | 0.00 | 0.00 | 0.00 | 49 | 1005.1 |
| 20260506042725 | 18 | 134 | 0.0 | 1.6 | 0.00 | 0.00 | 0.00 | 49 | 1005.2 |
| 20260506042621 | 18 | 134 | 0.0 | 1.6 | 0.00 | 0.00 | 0.00 | 49 | 1005.2 |
| 20260506042519 | 18 | 126 | 0.0 | 1.6 | 0.00 | 0.00 | 0.00 | 48 | 1005.2 |
| 20260506042424 | 18 | 126 | 0.0 | 1.6 | 0.00 | 0.00 | 0.00 | 48 | 1005.2 |
| 20260506042317 | 18 | 126 | 0.0 | 0.0 | 0.00 | 0.00 | 0.00 | 48 | 1005.4 |
| 20260506042215 | 18 | 126 | 0.0 | 0.0 | 0.00 | 0.00 | 0.00 | 47 | 1005.4 |
| 20260506042108 | 18 | 126 | 0.0 | 0.0 | 0.00 | 0.00 | 0.00 | 47 | 1005.4 |
| 20260506042010 | 18 | 126 | 0.0 | 0.0 | 0.00 | 0.00 | 0.00 | 47 | 1005.4 |
| 20260506041911 | 18 | 126 | 0.0 | 0.0 | 0.00 | 0.00 | 0.00 | 47 | 1005.4 |
| 20260506041738 | 18 | 126 | 0.0 | 0.0 | 0.00 | 0.00 | 0.00 | 46 | 1005.4 |
| 20260506041640 | 18 | 126 | 0.0 | 0.0 | 0.00 | 0.00 | 0.00 | 46 | 1005.4 |
| 20260506041535 | 18 | 126 | 0.0 | 0.0 | 0.00 | 0.00 | 0.00 | 46 | 1005.4 |
| 20260506041421 | 18 | 126 | 0.0 | 0.0 | 0.00 | 0.00 | 0.00 | 45 | 1005.4 |
| 20260506041320 | 18 | 126 | 0.0 | 0.0 | 0.00 | 0.00 | 0.00 | 44 | 1005.4 |
| 20260506041210 | 18 | 126 | 0.0 | 0.0 | 0.00 | 0.00 | 0.00 | 44 | 1005.6 |
| 20260506041105 | 18 | 126 | 0.0 | 0.0 | 0.00 | 0.00 | 0.00 | 44 | 1005.6 |
| 20260506040959 | 18 | 126 | 0.0 | 0.0 | 0.00 | 0.00 | 0.00 | 44 | 1005.6 |
| 20260506040843 | 18 | 126 | 0.0 | 0.0 | 0.00 | 0.00 | 0.00 | 44 | 1005.6 |
| 20260506040739 | 18 | 126 | 0.0 | 0.0 | 0.00 | 0.00 | 0.00 | 43 | 1005.7 |
| 20260506040644 | 18 | 126 | 0.0 | 0.0 | 0.00 | 0.00 | 0.00 | 43 | 1005.7 |
| 20260506040537 | 18 | 126 | 0.0 | 0.0 | 0.00 | 0.00 | 0.00 | 43 | 1005.7 |
| 20260506040443 | 19 | 126 | 0.0 | 0.0 | 0.00 | 0.00 | 0.00 | 43 | 1005.7 |
| 20260506040336 | 19 | 126 | 0.0 | 0.0 | 0.00 | 0.00 | 0.00 | 43 | 1005.7 |
| 20260506040226 | 19 | 126 | 0.0 | 0.0 | 0.00 | 0.00 | 0.00 | 43 | 1005.8 |
| 20260506040119 | 19 | 126 | 0.0 | 0.0 | 0.00 | 0.00 | 0.00 | 43 | 1005.8 |
| 20260506040017 | 19 | 126 | 0.0 | 1.6 | 0.00 | 0.00 | 0.00 | 43 | 1005.8 |
| 20260506035909 | 19 | 126 | 0.0 | 1.6 | 0.00 | 0.00 | 0.00 | 43 | 1005.8 |
| 20260506035813 | 19 | 126 | 0.0 | 1.6 | 0.00 | 0.00 | 0.00 | 43 | 1005.8 |
| 20260506035714 | 19 | 126 | 0.0 | 1.6 | 0.00 | 0.00 | 0.00 | 42 | 1005.5 |
| 20260506035610 | 19 | 126 | 0.0 | 1.6 | 0.00 | 0.00 | 0.00 | 42 | 1005.5 |
| 20260506035449 | 19 | 126 | 0.0 | 1.6 | 0.00 | 0.00 | 0.00 | 42 | 1005.6 |
| 20260506035344 | 19 | 126 | 0.0 | 1.6 | 0.00 | 0.00 | 0.00 | 42 | 1005.6 |
| 20260506035237 | 19 | 126 | 0.0 | 1.6 | 0.00 | 0.00 | 0.00 | 42 | 1005.6 |
| 20260506035137 | 19 | 146 | 0.0 | 1.6 | 0.00 | 0.00 | 0.00 | 42 | 1005.6 |
| 20260506035037 | 19 | 130 | 0.0 | 1.6 | 0.00 | 0.00 | 0.00 | 42 | 1005.6 |
| 20260506034935 | 19 | 130 | 0.0 | 1.6 | 0.00 | 0.00 | 0.00 | 41 | 1005.6 |
| 20260506034829 | 19 | 159 | 0.0 | 1.6 | 0.00 | 0.00 | 0.00 | 41 | 1005.6 |
| 20260506034738 | 19 | 150 | 0.0 | 0.0 | 0.00 | 0.00 | 0.00 | 41 | 1005.6 |
| 20260506034625 | 19 | 159 | 0.0 | 0.0 | 0.00 | 0.00 | 0.00 | 41 | 1005.6 |
| 20260506034519 | 20 | 159 | 0.0 | 0.0 | 0.00 | 0.00 | 0.00 | 41 | 1005.7 |
| 20260506034422 | 20 | 159 | 0.0 | 0.0 | 0.00 | 0.00 | 0.00 | 40 | 1005.7 |
| 20260506034314 | 20 | 159 | 0.0 | 0.0 | 0.00 | 0.00 | 0.00 | 40 | 1005.7 |
| 20260506034214 | 20 | 159 | 0.0 | 0.0 | 0.00 | 0.00 | 0.00 | 40 | 1005.6 |
| 20260506034112 | 20 | 159 | 0.0 | 0.0 | 0.00 | 0.00 | 0.00 | 40 | 1005.6 |
| 20260506034015 | 20 | 159 | 0.0 | 0.0 | 0.00 | 0.00 | 0.00 | 39 | 1005.6 |
| 20260506033919 | 20 | 159 | 0.0 | 0.0 | 0.00 | 0.00 | 0.00 | 39 | 1005.7 |
| 20260506033809 | 20 | 159 | 0.0 | 0.0 | 0.00 | 0.00 | 0.00 | 39 | 1005.7 |
| 20260506033709 | 20 | 159 | 0.0 | 0.0 | 0.00 | 0.00 | 0.00 | 39 | 1005.7 |
| 20260506033614 | 20 | 159 | 0.0 | 0.0 | 0.00 | 0.00 | 0.00 | 39 | 1005.7 |
| 20260506033513 | 20 | 159 | 0.0 | 0.0 | 0.00 | 0.00 | 0.00 | 39 | 1005.7 |
| 20260506033410 | 20 | 159 | 0.0 | 0.0 | 0.00 | 0.00 | 0.00 | 39 | 1005.7 |
| 20260506033308 | 20 | 159 | 0.0 | 0.0 | 0.00 | 0.00 | 0.00 | 39 | 1005.7 |
| 20260506033146 | 20 | 159 | 0.0 | 0.0 | 0.00 | 0.00 | 0.00 | 39 | 1005.8 |
| 20260506033035 | 20 | 159 | 0.0 | 0.0 | 0.00 | 0.00 | 0.00 | 38 | 1005.8 |
| 20260506032949 | 20 | 159 | 0.0 | 0.0 | 0.00 | 0.00 | 0.00 | 39 | 1005.8 |
| 20260506032839 | 20 | 159 | 0.0 | 0.0 | 0.00 | 0.00 | 0.00 | 39 | 1005.8 |
| 20260506032738 | 20 | 159 | 0.0 | 0.0 | 0.00 | 0.00 | 0.00 | 38 | 1005.7 |
| 20260506032641 | 20 | 159 | 0.0 | 0.0 | 0.00 | 0.00 | 0.00 | 38 | 1005.7 |
| 20260506032540 | 20 | 160 | 0.0 | 0.0 | 0.00 | 0.00 | 0.00 | 38 | 1005.7 |
| 20260506032440 | 20 | 160 | 0.0 | 1.6 | 0.00 | 0.00 | 0.00 | 38 | 1005.7 |
| 20260506032333 | 20 | 160 | 0.0 | 1.6 | 0.00 | 0.00 | 0.00 | 39 | 1005.7 |
| 20260506032232 | 20 | 160 | 0.0 | 1.6 | 0.00 | 0.00 | 0.00 | 38 | 1005.7 |
| 20260506032131 | 20 | 160 | 0.0 | 1.6 | 0.00 | 0.00 | 0.00 | 38 | 1005.7 |
| 20260506032034 | 20 | 160 | 0.0 | 1.6 | 0.00 | 0.00 | 0.00 | 38 | 1005.7 |
| 20260506031938 | 20 | 160 | 0.0 | 1.6 | 0.00 | 0.00 | 0.00 | 38 | 1005.7 |
| 20260506031838 | 20 | 160 | 0.0 | 1.6 | 0.00 | 0.00 | 0.00 | 38 | 1005.7 |
| 20260506031734 | 20 | 160 | 0.0 | 1.6 | 0.00 | 0.00 | 0.00 | 38 | 1005.8 |
| 20260506031612 | 20 | 160 | 0.0 | 1.6 | 0.00 | 0.00 | 0.00 | 38 | 1005.7 |
| 20260506031511 | 20 | 157 | 0.0 | 1.6 | 0.00 | 0.00 | 0.00 | 38 | 1005.7 |
| 20260506031410 | 20 | 171 | 0.0 | 1.6 | 0.00 | 0.00 | 0.00 | 38 | 1005.7 |
| 20260506031311 | 20 | 210 | 0.0 | 1.6 | 0.00 | 0.00 | 0.00 | 38 | 1005.8 |
| 20260506031215 | 20 | 221 | 0.0 | 1.6 | 0.00 | 0.00 | 0.00 | 38 | 1005.5 |
| 20260506031121 | 20 | 221 | 0.0 | 0.0 | 0.00 | 0.00 | 0.00 | 38 | 1005.5 |
| 20260506031016 | 20 | 221 | 0.0 | 0.0 | 0.00 | 0.00 | 0.00 | 38 | 1005.5 |
| 20260506030912 | 20 | 221 | 0.0 | 0.0 | 0.00 | 0.00 | 0.00 | 38 | 1005.5 |
| 20260506030802 | 20 | 221 | 0.0 | 0.0 | 0.00 | 0.00 | 0.00 | 38 | 1005.6 |
| 20260506030651 | 20 | 221 | 0.0 | 0.0 | 0.00 | 0.00 | 0.00 | 38 | 1005.6 |
| 20260506030542 | 20 | 221 | 0.0 | 1.6 | 0.00 | 0.00 | 0.00 | 37 | 1005.6 |
| 20260506030441 | 20 | 221 | 0.0 | 1.6 | 0.00 | 0.00 | 0.00 | 37 | 1005.6 |
| 20260506030341 | 20 | 221 | 0.0 | 1.6 | 0.00 | 0.00 | 0.00 | 37 | 1005.6 |
| 20260506030242 | 20 | 221 | 0.0 | 1.6 | 0.00 | 0.00 | 0.00 | 37 | 1005.6 |
| 20260506030140 | 20 | 233 | 0.0 | 1.6 | 0.00 | 0.00 | 0.00 | 37 | 1005.6 |
| 20260506030040 | 21 | 233 | 0.0 | 1.6 | 0.00 | 0.00 | 0.00 | 37 | 1005.6 |
| 20260506025945 | 21 | 234 | 0.0 | 1.6 | 0.00 | 0.00 | 0.00 | 37 | 1005.6 |
| 20260506025833 | 21 | 213 | 0.0 | 1.6 | 0.00 | 0.00 | 0.00 | 37 | 1005.6 |
| 20260506025735 | 21 | 212 | 0.0 | 3.2 | 0.00 | 0.00 | 0.00 | 36 | 1005.7 |
| 20260506025623 | 21 | 214 | 0.0 | 3.2 | 0.00 | 0.00 | 0.00 | 36 | 1005.7 |
| 20260506025520 | 21 | 213 | 0.0 | 3.2 | 0.00 | 0.00 | 0.00 | 36 | 1005.8 |
| 20260506025411 | 21 | 223 | 0.0 | 3.2 | 0.00 | 0.00 | 0.00 | 36 | 1005.8 |
| 20260506025311 | 21 | 223 | 0.0 | 3.2 | 0.00 | 0.00 | 0.00 | 36 | 1005.8 |
| 20260506025211 | 21 | 219 | 0.0 | 3.2 | 0.00 | 0.00 | 0.00 | 36 | 1005.8 |
| 20260506025059 | 21 | 217 | 0.0 | 3.2 | 0.00 | 0.00 | 0.00 | 36 | 1005.8 |
| 20260506024958 | 21 | 197 | 0.0 | 3.2 | 0.00 | 0.00 | 0.00 | 36 | 1005.9 |
| 20260506024847 | 21 | 188 | 0.0 | 3.2 | 0.00 | 0.00 | 0.00 | 36 | 1005.9 |
| 20260506024752 | 21 | 222 | 0.0 | 1.6 | 0.00 | 0.00 | 0.00 | 36 | 1005.9 |
| 20260506024650 | 21 | 208 | 0.0 | 1.6 | 0.00 | 0.00 | 0.00 | 35 | 1005.9 |
| 20260506024542 | 21 | 213 | 0.0 | 3.2 | 0.00 | 0.00 | 0.00 | 35 | 1005.9 |
| 20260506024438 | 21 | 217 | 0.0 | 3.2 | 0.00 | 0.00 | 0.00 | 35 | 1005.9 |
| 20260506024341 | 21 | 223 | 0.0 | 3.2 | 0.00 | 0.00 | 0.00 | 35 | 1005.9 |
| 20260506024244 | 21 | 223 | 0.0 | 3.2 | 0.00 | 0.00 | 0.00 | 35 | 1005.8 |
| 20260506024110 | 21 | 223 | 0.0 | 6.4 | 0.00 | 0.00 | 0.00 | 35 | 1005.9 |
| 20260506024013 | 21 | 227 | 0.0 | 6.4 | 0.00 | 0.00 | 0.00 | 35 | 1005.9 |
| 20260506023912 | 21 | 227 | 0.0 | 6.4 | 0.00 | 0.00 | 0.00 | 35 | 1005.9 |
| 20260506023810 | 21 | 229 | 0.0 | 6.4 | 0.00 | 0.00 | 0.00 | 35 | 1005.9 |
| 20260506023704 | 21 | 225 | 1.6 | 6.4 | 0.00 | 0.00 | 0.00 | 35 | 1005.9 |
| 20260506023556 | 21 | 242 | 1.6 | 6.4 | 0.00 | 0.00 | 0.00 | 35 | 1005.9 |
| 20260506023506 | 21 | 250 | 1.6 | 6.4 | 0.00 | 0.00 | 0.00 | 35 | 1005.9 |
| 20260506023349 | 21 | 210 | 1.6 | 6.4 | 0.00 | 0.00 | 0.00 | 35 | 1005.9 |
| 20260506023243 | 21 | 234 | 1.6 | 6.4 | 0.00 | 0.00 | 0.00 | 34 | 1005.9 |
| 20260506023133 | 21 | 173 | 1.6 | 8.0 | 0.00 | 0.00 | 0.00 | 34 | 1005.9 |
| 20260506023036 | 21 | 219 | 1.6 | 8.0 | 0.00 | 0.00 | 0.00 | 35 | 1005.9 |
| 20260506022937 | 21 | 210 | 1.6 | 8.0 | 0.00 | 0.00 | 0.00 | 35 | 1005.9 |
| 20260506022834 | 21 | 212 | 1.6 | 11.3 | 0.00 | 0.00 | 0.00 | 35 | 1005.9 |
| 20260506022735 | 21 | 195 | 1.6 | 11.3 | 0.00 | 0.00 | 0.00 | 34 | 1005.7 |
| 20260506022632 | 21 | 228 | 1.6 | 11.3 | 0.00 | 0.00 | 0.00 | 34 | 1005.7 |
| 20260506022530 | 21 | 236 | 1.6 | 11.3 | 0.00 | 0.00 | 0.00 | 34 | 1005.7 |
| 20260506022425 | 21 | 209 | 1.6 | 11.3 | 0.00 | 0.00 | 0.00 | 34 | 1005.7 |
| 20260506022321 | 21 | 229 | 3.2 | 11.3 | 0.00 | 0.00 | 0.00 | 34 | 1005.7 |
| 20260506022222 | 21 | 211 | 3.2 | 11.3 | 0.00 | 0.00 | 0.00 | 34 | 1005.7 |
| 20260506022123 | 22 | 221 | 3.2 | 11.3 | 0.00 | 0.00 | 0.00 | 34 | 1005.7 |
| 20260506022018 | 22 | 207 | 1.6 | 11.3 | 0.00 | 0.00 | 0.00 | 34 | 1005.8 |
| 20260506021916 | 22 | 229 | 1.6 | 11.3 | 0.00 | 0.00 | 0.00 | 34 | 1005.8 |
| 20260506021820 | 22 | 221 | 1.6 | 8.0 | 0.00 | 0.00 | 0.00 | 34 | 1005.8 |
| 20260506021719 | 22 | 189 | 3.2 | 11.3 | 0.00 | 0.00 | 0.00 | 34 | 1005.8 |
| 20260506021614 | 22 | 244 | 3.2 | 11.3 | 0.00 | 0.00 | 0.00 | 33 | 1005.8 |
| 20260506021513 | 22 | 237 | 3.2 | 11.3 | 0.00 | 0.00 | 0.00 | 33 | 1005.8 |
| 20260506021413 | 22 | 209 | 3.2 | 11.3 | 0.00 | 0.00 | 0.00 | 33 | 1005.8 |
| 20260506021310 | 22 | 242 | 3.2 | 11.3 | 0.00 | 0.00 | 0.00 | 33 | 1005.8 |
| 20260506021206 | 22 | 260 | 3.2 | 11.3 | 0.00 | 0.00 | 0.00 | 33 | 1006.2 |
| 20260506021110 | 22 | 248 | 3.2 | 11.3 | 0.00 | 0.00 | 0.00 | 33 | 1006.2 |
| 20260506021010 | 22 | 246 | 4.8 | 11.3 | 0.00 | 0.00 | 0.00 | 33 | 1006.2 |
| 20260506020906 | 22 | 249 | 4.8 | 11.3 | 0.00 | 0.00 | 0.00 | 33 | 1006.2 |
| 20260506020802 | 22 | 231 | 4.8 | 11.3 | 0.00 | 0.00 | 0.00 | 33 | 1006.2 |
| 20260506020712 | 22 | 238 | 3.2 | 11.3 | 0.00 | 0.00 | 0.00 | 33 | 1006.2 |
| 20260506020606 | 22 | 227 | 4.8 | 11.3 | 0.00 | 0.00 | 0.00 | 33 | 1006.2 |
| 20260506020500 | 22 | 236 | 4.8 | 11.3 | 0.00 | 0.00 | 0.00 | 32 | 1006.2 |
| 20260506020357 | 22 | 221 | 4.8 | 11.3 | 0.00 | 0.00 | 0.00 | 32 | 1006.4 |
| 20260506020255 | 22 | 230 | 4.8 | 12.9 | 0.00 | 0.00 | 0.00 | 32 | 1006.4 |
| 20260506020151 | 22 | 262 | 4.8 | 12.9 | 0.00 | 0.00 | 0.00 | 32 | 1006.4 |
| 20260506020051 | 22 | 236 | 4.8 | 12.9 | 0.00 | 0.00 | 0.00 | 32 | 1006.4 |
| 20260506015948 | 22 | 246 | 4.8 | 12.9 | 0.00 | 0.00 | 0.00 | 32 | 1006.4 |
| 20260506015846 | 22 | 235 | 4.8 | 12.9 | 0.00 | 0.00 | 0.00 | 32 | 1006.4 |
| 20260506015748 | 22 | 234 | 4.8 | 12.9 | 0.00 | 0.00 | 0.00 | 31 | 1006.5 |
| 20260506015645 | 22 | 227 | 4.8 | 12.9 | 0.00 | 0.00 | 0.00 | 31 | 1006.4 |
| 20260506015540 | 22 | 222 | 4.8 | 12.9 | 0.00 | 0.00 | 0.00 | 31 | 1006.4 |
| 20260506015444 | 22 | 234 | 4.8 | 12.9 | 0.00 | 0.00 | 0.00 | 31 | 1006.4 |
| 20260506015337 | 22 | 226 | 6.4 | 12.9 | 0.00 | 0.00 | 0.00 | 31 | 1006.4 |
| 20260506015242 | 22 | 219 | 6.4 | 12.9 | 0.00 | 0.00 | 0.00 | 31 | 1006.4 |
| 20260506015142 | 22 | 212 | 6.4 | 12.9 | 0.00 | 0.00 | 0.00 | 31 | 1006.5 |
| 20260506015041 | 23 | 232 | 6.4 | 12.9 | 0.00 | 0.00 | 0.00 | 31 | 1006.5 |
| 20260506014934 | 23 | 232 | 6.4 | 12.9 | 0.00 | 0.00 | 0.00 | 31 | 1006.5 |
| 20260506014837 | 23 | 122 | 6.4 | 14.5 | 0.00 | 0.00 | 0.00 | 31 | 1006.5 |
| 20260506014737 | 23 | 224 | 6.4 | 14.5 | 0.00 | 0.00 | 0.00 | 30 | 1006.5 |
| 20260506014632 | 23 | 230 | 6.4 | 14.5 | 0.00 | 0.00 | 0.00 | 30 | 1006.5 |
| 20260506014535 | 23 | 219 | 6.4 | 14.5 | 0.00 | 0.00 | 0.00 | 30 | 1006.5 |
| 20260506014425 | 23 | 247 | 6.4 | 16.1 | 0.00 | 0.00 | 0.00 | 30 | 1006.5 |
| 20260506014321 | 23 | 257 | 6.4 | 16.1 | 0.00 | 0.00 | 0.00 | 30 | 1006.6 |
| 20260506014216 | 23 | 231 | 6.4 | 16.1 | 0.00 | 0.00 | 0.00 | 30 | 1006.2 |
| 20260506014110 | 23 | 221 | 8.0 | 16.1 | 0.00 | 0.00 | 0.00 | 30 | 1006.2 |
| 20260506014007 | 23 | 193 | 8.0 | 16.1 | 0.00 | 0.00 | 0.00 | 29 | 1006.2 |
| 20260506013909 | 23 | 231 | 6.4 | 16.1 | 0.00 | 0.00 | 0.00 | 29 | 1006.4 |
| 20260506013810 | 23 | 212 | 6.4 | 16.1 | 0.00 | 0.00 | 0.00 | 29 | 1006.4 |
| 20260506013708 | 23 | 212 | 8.0 | 16.1 | 0.00 | 0.00 | 0.00 | 29 | 1006.4 |
| 20260506013611 | 23 | 225 | 8.0 | 17.7 | 0.00 | 0.00 | 0.00 | 29 | 1006.4 |
| 20260506013514 | 23 | 243 | 8.0 | 17.7 | 0.00 | 0.00 | 0.00 | 29 | 1006.4 |
| 20260506013411 | 23 | 165 | 8.0 | 17.7 | 0.00 | 0.00 | 0.00 | 29 | 1006.4 |
| 20260506013302 | 23 | 215 | 8.0 | 17.7 | 0.00 | 0.00 | 0.00 | 29 | 1006.4 |
| 20260506013206 | 23 | 213 | 8.0 | 17.7 | 0.00 | 0.00 | 0.00 | 29 | 1006.4 |
| 20260506013102 | 23 | 238 | 8.0 | 17.7 | 0.00 | 0.00 | 0.00 | 29 | 1006.4 |
| 20260506013005 | 23 | 238 | 8.0 | 17.7 | 0.00 | 0.00 | 0.00 | 29 | 1006.4 |
| 20260506012854 | 23 | 242 | 8.0 | 17.7 | 0.00 | 0.00 | 0.00 | 29 | 1006.4 |
| 20260506012748 | 23 | 222 | 8.0 | 17.7 | 0.00 | 0.00 | 0.00 | 29 | 1006.5 |
| 20260506012653 | 23 | 217 | 8.0 | 17.7 | 0.00 | 0.00 | 0.00 | 28 | 1006.6 |
| 20260506012553 | 23 | 227 | 6.4 | 16.1 | 0.00 | 0.00 | 0.00 | 28 | 1006.6 |
| 20260506012452 | 23 | 245 | 6.4 | 16.1 | 0.00 | 0.00 | 0.00 | 28 | 1006.6 |
| 20260506012336 | 23 | 213 | 6.4 | 16.1 | 0.00 | 0.00 | 0.00 | 28 | 1006.6 |
| 20260506012237 | 23 | 190 | 8.0 | 16.1 | 0.00 | 0.00 | 0.00 | 28 | 1006.6 |
| 20260506012134 | 23 | 238 | 6.4 | 16.1 | 0.00 | 0.00 | 0.00 | 28 | 1006.6 |
| 20260506012040 | 23 | 215 | 6.4 | 22.5 | 0.00 | 0.00 | 0.00 | 28 | 1006.6 |
| 20260506011937 | 23 | 223 | 6.4 | 22.5 | 0.00 | 0.00 | 0.00 | 28 | 1006.6 |
| 20260506011831 | 23 | 275 | 8.0 | 22.5 | 0.00 | 0.00 | 0.00 | 28 | 1006.6 |
| 20260506011730 | 23 | 250 | 8.0 | 22.5 | 0.00 | 0.00 | 0.00 | 28 | 1006.7 |
| 20260506011625 | 23 | 261 | 8.0 | 22.5 | 0.00 | 0.00 | 0.00 | 27 | 1006.7 |
| 20260506011526 | 24 | 268 | 8.0 | 22.5 | 0.00 | 0.00 | 0.00 | 27 | 1006.7 |
| 20260506011425 | 24 | 288 | 8.0 | 22.5 | 0.00 | 0.00 | 0.00 | 27 | 1006.7 |
| 20260506011328 | 24 | 204 | 8.0 | 22.5 | 0.00 | 0.00 | 0.00 | 27 | 1006.7 |
| 20260506011217 | 24 | 250 | 8.0 | 22.5 | 0.00 | 0.00 | 0.00 | 27 | 1006.9 |
| 20260506011126 | 24 | 276 | 8.0 | 17.7 | 0.00 | 0.00 | 0.00 | 27 | 1006.9 |
| 20260506011022 | 24 | 277 | 9.7 | 17.7 | 0.00 | 0.00 | 0.00 | 27 | 1006.9 |
| 20260506010916 | 24 | 212 | 9.7 | 20.9 | 0.00 | 0.00 | 0.00 | 27 | 1006.9 |
| 20260506010818 | 24 | 204 | 9.7 | 20.9 | 0.00 | 0.00 | 0.00 | 27 | 1006.9 |
| 20260506010712 | 24 | 259 | 9.7 | 20.9 | 0.00 | 0.00 | 0.00 | 27 | 1006.9 |
| 20260506010615 | 24 | 257 | 9.7 | 20.9 | 0.00 | 0.00 | 0.00 | 27 | 1006.9 |
| 20260506010509 | 24 | 221 | 11.3 | 22.5 | 0.00 | 0.00 | 0.00 | 27 | 1006.9 |
| 20260506010410 | 24 | 252 | 11.3 | 22.5 | 0.00 | 0.00 | 0.00 | 27 | 1006.9 |
| 20260506010310 | 24 | 187 | 12.9 | 22.5 | 0.00 | 0.00 | 0.00 | 27 | 1007.0 |
| 20260506010213 | 24 | 273 | 12.9 | 22.5 | 0.00 | 0.00 | 0.00 | 27 | 1007.0 |
| 20260506010114 | 24 | 244 | 12.9 | 22.5 | 0.00 | 0.00 | 0.00 | 27 | 1007.0 |
| 20260506010010 | 24 | 261 | 12.9 | 24.1 | 0.00 | 0.00 | 0.00 | 26 | 1007.0 |
| 20260506005903 | 24 | 243 | 12.9 | 24.1 | 0.00 | 0.00 | 0.00 | 26 | 1007.0 |
| 20260506005807 | 24 | 279 | 12.9 | 24.1 | 0.00 | 0.00 | 0.00 | 26 | 1007.0 |
| 20260506005709 | 24 | 222 | 14.5 | 24.1 | 0.00 | 0.00 | 0.00 | 26 | 1007.0 |
| 20260506005555 | 24 | 249 | 14.5 | 25.7 | 0.00 | 0.00 | 0.00 | 26 | 1007.0 |
| 20260506005453 | 24 | 229 | 14.5 | 25.7 | 0.00 | 0.00 | 0.00 | 26 | 1007.0 |
| 20260506005401 | 24 | 209 | 14.5 | 25.7 | 0.00 | 0.00 | 0.00 | 26 | 1007.0 |
| 20260506005255 | 24 | 199 | 14.5 | 25.7 | 0.00 | 0.00 | 0.00 | 26 | 1007.0 |
| 20260506005201 | 24 | 226 | 14.5 | 25.7 | 0.00 | 0.00 | 0.00 | 26 | 1007.0 |
| 20260506005055 | 24 | 221 | 14.5 | 32.2 | 0.00 | 0.00 | 0.00 | 26 | 1007.0 |
| 20260506004955 | 24 | 280 | 14.5 | 32.2 | 0.00 | 0.00 | 0.00 | 26 | 1007.0 |
| 20260506004856 | 24 | 244 | 14.5 | 32.2 | 0.00 | 0.00 | 0.00 | 26 | 1007.0 |
| 20260506004747 | 24 | 244 | 14.5 | 32.2 | 0.00 | 0.00 | 0.00 | 26 | 1007.0 |
| 20260506004646 | 24 | 194 | 14.5 | 32.2 | 0.00 | 0.00 | 0.00 | 26 | 1007.1 |
| 20260506004544 | 25 | 238 | 14.5 | 32.2 | 0.00 | 0.00 | 0.00 | 26 | 1007.1 |
| 20260506004441 | 25 | 250 | 14.5 | 32.2 | 0.00 | 0.00 | 0.00 | 26 | 1007.1 |
| 20260506004349 | 25 | 264 | 14.5 | 32.2 | 0.00 | 0.00 | 0.00 | 26 | 1007.1 |
| 20260506004237 | 25 | 277 | 16.1 | 32.2 | 0.00 | 0.00 | 0.00 | 25 | 1007.1 |
| 20260506004136 | 25 | 248 | 16.1 | 32.2 | 0.00 | 0.00 | 0.00 | 25 | 1006.9 |
| 20260506004039 | 25 | 227 | 16.1 | 32.2 | 0.00 | 0.00 | 0.00 | 26 | 1006.9 |
| 20260506003941 | 25 | 243 | 16.1 | 32.2 | 0.00 | 0.00 | 0.00 | 26 | 1006.9 |
| 20260506003835 | 25 | 247 | 16.1 | 32.2 | 0.00 | 0.00 | 0.00 | 26 | 1006.9 |
| 20260506003732 | 25 | 270 | 16.1 | 32.2 | 0.00 | 0.00 | 0.00 | 26 | 1006.9 |
| 20260506003636 | 25 | 271 | 17.7 | 32.2 | 0.00 | 0.00 | 0.00 | 25 | 1006.9 |
| 20260506003531 | 25 | 268 | 17.7 | 32.2 | 0.00 | 0.00 | 0.00 | 25 | 1006.9 |
| 20260506003435 | 25 | 279 | 16.1 | 32.2 | 0.00 | 0.00 | 0.00 | 26 | 1006.9 |
| 20260506003323 | 25 | 273 | 16.1 | 32.2 | 0.00 | 0.00 | 0.00 | 26 | 1006.9 |
| 20260506003230 | 25 | 263 | 16.1 | 32.2 | 0.00 | 0.00 | 0.00 | 26 | 1006.9 |
| 20260506003119 | 25 | 284 | 16.1 | 30.6 | 0.00 | 0.00 | 0.00 | 26 | 1006.9 |
| 20260506003020 | 25 | 248 | 14.5 | 30.6 | 0.00 | 0.00 | 0.00 | 26 | 1006.9 |
| 20260506002925 | 25 | 253 | 14.5 | 30.6 | 0.00 | 0.00 | 0.00 | 26 | 1006.9 |
| 20260506002810 | 25 | 216 | 14.5 | 30.6 | 0.00 | 0.00 | 0.00 | 26 | 1006.9 |
| 20260506002709 | 25 | 281 | 14.5 | 30.6 | 0.00 | 0.00 | 0.00 | 26 | 1007.0 |
| 20260506002611 | 25 | 257 | 14.5 | 30.6 | 0.00 | 0.00 | 0.00 | 26 | 1007.0 |
| 20260506002508 | 25 | 246 | 16.1 | 33.8 | 0.00 | 0.00 | 0.00 | 27 | 1007.0 |
| 20260506002412 | 25 | 238 | 16.1 | 35.4 | 0.00 | 0.00 | 0.00 | 27 | 1006.9 |
| 20260506002314 | 25 | 265 | 16.1 | 35.4 | 0.00 | 0.00 | 0.00 | 27 | 1006.9 |
| 20260506002211 | 25 | 233 | 16.1 | 35.4 | 0.00 | 0.00 | 0.00 | 26 | 1006.9 |
| 20260506002111 | 25 | 282 | 16.1 | 35.4 | 0.00 | 0.00 | 0.00 | 26 | 1006.9 |
| 20260506002003 | 25 | 222 | 16.1 | 35.4 | 0.00 | 0.00 | 0.00 | 26 | 1006.9 |
| 20260506001904 | 25 | 259 | 17.7 | 35.4 | 0.00 | 0.00 | 0.00 | 26 | 1006.9 |
| 20260506001759 | 25 | 252 | 17.7 | 35.4 | 0.00 | 0.00 | 0.00 | 26 | 1006.9 |
| 20260506001713 | 25 | 238 | 17.7 | 46.7 | 0.00 | 0.00 | 0.00 | 26 | 1006.9 |
| 20260506001557 | 25 | 259 | 17.7 | 46.7 | 0.00 | 0.00 | 0.00 | 26 | 1006.9 |
| 20260506001458 | 25 | 245 | 16.1 | 46.7 | 0.00 | 0.00 | 0.00 | 26 | 1007.0 |
| 20260506001355 | 25 | 244 | 16.1 | 46.7 | 0.00 | 0.00 | 0.00 | 26 | 1007.0 |
| 20260506001257 | 25 | 279 | 16.1 | 46.7 | 0.00 | 0.00 | 0.00 | 26 | 1007.0 |
| 20260506001155 | 25 | 225 | 17.7 | 46.7 | 0.00 | 0.00 | 0.00 | 26 | 1006.9 |
| 20260506001052 | 25 | 173 | 17.7 | 46.7 | 0.00 | 0.00 | 0.00 | 26 | 1006.9 |
| 20260506000952 | 25 | 234 | 17.7 | 46.7 | 0.00 | 0.00 | 0.00 | 25 | 1006.9 |
| 20260506000857 | 25 | 249 | 17.7 | 46.7 | 0.00 | 0.00 | 0.00 | 25 | 1007.0 |
| 20260506000740 | 25 | 221 | 17.7 | 35.4 | 0.00 | 0.00 | 0.00 | 25 | 1007.0 |
| 20260506000639 | 25 | 254 | 17.7 | 35.4 | 0.00 | 0.00 | 0.00 | 25 | 1007.0 |
| 20260506000540 | 25 | 257 | 17.7 | 35.4 | 0.00 | 0.00 | 0.00 | 25 | 1007.0 |
| 20260506000440 | 25 | 267 | 19.3 | 35.4 | 0.00 | 0.00 | 0.00 | 25 | 1007.0 |
| 20260506000341 | 25 | 232 | 19.3 | 35.4 | 0.00 | 0.00 | 0.00 | 25 | 1007.0 |
| 20260506000240 | 25 | 221 | 19.3 | 35.4 | 0.00 | 0.00 | 0.00 | 25 | 1007.0 |
| 20260506000139 | 25 | 237 | 19.3 | 35.4 | 0.00 | 0.00 | 0.00 | 25 | 1007.0 |
| 20260506000045 | 25 | 252 | 19.3 | 35.4 | 0.00 | 0.00 | 0.00 | 25 | 1007.0 |
| 20260505235938 | 25 | 258 | 19.3 | 37.0 | 0.00 | 0.00 | 0.00 | 25 | 1007.1 |
| 20260505235845 | 25 | 260 | 19.3 | 37.0 | 0.00 | 0.00 | 0.00 | 25 | 1007.1 |
| 20260505235725 | 25 | 230 | 20.9 | 37.0 | 0.00 | 0.00 | 0.00 | 25 | 1007.0 |
| 20260505235627 | 25 | 275 | 20.9 | 37.0 | 0.00 | 0.00 | 0.00 | 25 | 1007.1 |
| 20260505235521 | 26 | 254 | 20.9 | 45.1 | 0.00 | 0.00 | 0.00 | 25 | 1007.1 |
| 20260505235432 | 26 | 277 | 20.9 | 45.1 | 0.00 | 0.00 | 0.00 | 25 | 1007.1 |
| 20260505235320 | 26 | 274 | 20.9 | 45.1 | 0.00 | 0.00 | 0.00 | 26 | 1007.1 |
| 20260505235217 | 26 | 220 | 20.9 | 45.1 | 0.00 | 0.00 | 0.00 | 26 | 1007.1 |
| 20260505235114 | 26 | 321 | 20.9 | 45.1 | 0.00 | 0.00 | 0.00 | 26 | 1007.1 |
| 20260505235015 | 25 | 146 | 20.9 | 45.1 | 0.00 | 0.00 | 0.00 | 25 | 1007.1 |
| 20260505234912 | 25 | 227 | 20.9 | 45.1 | 0.00 | 0.00 | 0.00 | 25 | 1007.1 |
| 20260505234812 | 25 | 242 | 20.9 | 45.1 | 0.00 | 0.00 | 0.00 | 25 | 1007.1 |
| 20260505234706 | 25 | 277 | 20.9 | 45.1 | 0.00 | 0.00 | 0.00 | 25 | 1007.1 |
| 20260505234605 | 25 | 251 | 19.3 | 38.6 | 0.00 | 0.00 | 0.00 | 25 | 1007.0 |
| 20260505234459 | 25 | 209 | 17.7 | 37.0 | 0.00 | 0.00 | 0.00 | 26 | 1007.0 |
| 20260505234403 | 25 | 304 | 17.7 | 37.0 | 0.00 | 0.00 | 0.00 | 25 | 1007.0 |
| 20260505234241 | 25 | 205 | 17.7 | 37.0 | 0.00 | 0.00 | 0.00 | 26 | 1007.0 |
| 20260505234140 | 25 | 179 | 17.7 | 37.0 | 0.00 | 0.00 | 0.00 | 26 | 1007.1 |
| 20260505234042 | 25 | 261 | 17.7 | 37.0 | 0.00 | 0.00 | 0.00 | 26 | 1007.1 |
| 20260505233941 | 25 | 240 | 16.1 | 37.0 | 0.00 | 0.00 | 0.00 | 26 | 1007.1 |
| 20260505233834 | 25 | 254 | 16.1 | 35.4 | 0.00 | 0.00 | 0.00 | 27 | 1007.1 |
| 20260505233732 | 25 | 232 | 16.1 | 35.4 | 0.00 | 0.00 | 0.00 | 27 | 1007.1 |
| 20260505233628 | 25 | 237 | 17.7 | 37.0 | 0.00 | 0.00 | 0.00 | 27 | 1007.1 |
| 20260505233532 | 25 | 239 | 16.1 | 37.0 | 0.00 | 0.00 | 0.00 | 27 | 1007.0 |
| 20260505233433 | 25 | 269 | 17.7 | 37.0 | 0.00 | 0.00 | 0.00 | 28 | 1007.0 |
| 20260505233333 | 25 | 269 | 16.1 | 37.0 | 0.00 | 0.00 | 0.00 | 28 | 1007.0 |
| 20260505233223 | 25 | 265 | 16.1 | 37.0 | 0.00 | 0.00 | 0.00 | 28 | 1007.0 |
| 20260505233123 | 25 | 288 | 16.1 | 37.0 | 0.00 | 0.00 | 0.00 | 28 | 1007.0 |
| 20260505233029 | 25 | 54 | 16.1 | 37.0 | 0.00 | 0.00 | 0.00 | 28 | 1006.9 |
| 20260505232927 | 25 | 238 | 16.1 | 37.0 | 0.00 | 0.00 | 0.00 | 28 | 1006.9 |
| 20260505232821 | 25 | 229 | 16.1 | 37.0 | 0.00 | 0.00 | 0.00 | 28 | 1006.9 |
| 20260505232759 | 25 | 236 | 16.1 | 37.0 | 0.00 | 0.00 | 0.00 | 28 | 1006.9 |
| 20260505232617 | 25 | 271 | 16.1 | 30.6 | 0.00 | 0.00 | 0.00 | 28 | 1006.9 |
| 20260505232514 | 25 | 244 | 16.1 | 30.6 | 0.00 | 0.00 | 0.00 | 28 | 1006.9 |
| 20260505232421 | 25 | 257 | 16.1 | 30.6 | 0.00 | 0.00 | 0.00 | 28 | 1006.9 |
| 20260505232319 | 25 | 289 | 16.1 | 30.6 | 0.00 | 0.00 | 0.00 | 28 | 1006.9 |
| 20260505232218 | 25 | 238 | 16.1 | 30.6 | 0.00 | 0.00 | 0.00 | 28 | 1006.9 |
| 20260505232116 | 25 | 267 | 16.1 | 30.6 | 0.00 | 0.00 | 0.00 | 28 | 1006.9 |
| 20260505232018 | 25 | 220 | 16.1 | 30.6 | 0.00 | 0.00 | 0.00 | 28 | 1006.9 |
| 20260505231911 | 25 | 275 | 14.5 | 30.6 | 0.00 | 0.00 | 0.00 | 28 | 1006.9 |
| 20260505231813 | 25 | 211 | 14.5 | 30.6 | 0.00 | 0.00 | 0.00 | 28 | 1007.0 |
| 20260505231701 | 25 | 240 | 12.9 | 30.6 | 0.00 | 0.00 | 0.00 | 28 | 1007.0 |
| 20260505231603 | 25 | 223 | 12.9 | 30.6 | 0.00 | 0.00 | 0.00 | 29 | 1007.0 |
| 20260505231459 | 25 | 261 | 12.9 | 30.6 | 0.00 | 0.00 | 0.00 | 29 | 1007.0 |
| 20260505231359 | 25 | 180 | 12.9 | 30.6 | 0.00 | 0.00 | 0.00 | 29 | 1007.0 |
| 20260505231300 | 25 | 240 | 14.5 | 30.6 | 0.00 | 0.00 | 0.00 | 29 | 1007.0 |
| 20260505231158 | 25 | 252 | 14.5 | 30.6 | 0.00 | 0.00 | 0.00 | 28 | 1007.2 |
| 20260505231059 | 25 | 301 | 14.5 | 30.6 | 0.00 | 0.00 | 0.00 | 29 | 1007.2 |
| 20260505230958 | 25 | 291 | 14.5 | 30.6 | 0.00 | 0.00 | 0.00 | 29 | 1007.2 |
| 20260505230855 | 25 | 249 | 14.5 | 30.6 | 0.00 | 0.00 | 0.00 | 29 | 1007.2 |
| 20260505230758 | 25 | 249 | 14.5 | 30.6 | 0.00 | 0.00 | 0.00 | 28 | 1007.4 |
| 20260505230653 | 25 | 245 | 14.5 | 30.6 | 0.00 | 0.00 | 0.00 | 28 | 1007.4 |
| 20260505230549 | 25 | 31 | 14.5 | 30.6 | 0.00 | 0.00 | 0.00 | 29 | 1007.4 |
| 20260505230452 | 25 | 274 | 14.5 | 30.6 | 0.00 | 0.00 | 0.00 | 29 | 1007.4 |
| 20260505230339 | 25 | 268 | 14.5 | 30.6 | 0.00 | 0.00 | 0.00 | 28 | 1007.5 |
| 20260505230242 | 26 | 305 | 14.5 | 30.6 | 0.00 | 0.00 | 0.00 | 28 | 1007.5 |
| 20260505230146 | 26 | 234 | 14.5 | 32.2 | 0.00 | 0.00 | 0.00 | 28 | 1007.5 |
| 20260505225931 | 25 | 198 | 14.5 | 32.2 | 0.00 | 0.00 | 0.00 | 29 | 1007.5 |
| 20260505225829 | 25 | 265 | 14.5 | 32.2 | 0.00 | 0.00 | 0.00 | 29 | 1007.5 |
| 20260505225731 | 25 | 242 | 16.1 | 32.2 | 0.00 | 0.00 | 0.00 | 29 | 1007.7 |
| 20260505225633 | 25 | 239 | 16.1 | 32.2 | 0.00 | 0.00 | 0.00 | 29 | 1007.7 |
| 20260505225521 | 25 | 231 | 16.1 | 32.2 | 0.00 | 0.00 | 0.00 | 29 | 1007.6 |
| 20260505225438 | 25 | 263 | 16.1 | 33.8 | 0.00 | 0.00 | 0.00 | 29 | 1007.6 |
| 20260505225311 | 25 | 277 | 16.1 | 33.8 | 0.00 | 0.00 | 0.00 | 29 | 1007.6 |
| 20260505225211 | 25 | 223 | 16.1 | 33.8 | 0.00 | 0.00 | 0.00 | 30 | 1007.5 |
| 20260505225108 | 25 | 224 | 16.1 | 33.8 | 0.00 | 0.00 | 0.00 | 30 | 1007.5 |
| 20260505225009 | 25 | 246 | 16.1 | 33.8 | 0.00 | 0.00 | 0.00 | 29 | 1007.5 |
| 20260505224908 | 25 | 237 | 17.7 | 33.8 | 0.00 | 0.00 | 0.00 | 29 | 1007.5 |
| 20260505224819 | 25 | 86 | 17.7 | 37.0 | 0.00 | 0.00 | 0.00 | 29 | 1007.4 |
| 20260505224708 | 25 | 257 | 16.1 | 37.0 | 0.00 | 0.00 | 0.00 | 29 | 1007.5 |
| 20260505224613 | 25 | 289 | 16.1 | 37.0 | 0.00 | 0.00 | 0.00 | 29 | 1007.5 |
| 20260505224513 | 25 | 237 | 16.1 | 37.0 | 0.00 | 0.00 | 0.00 | 30 | 1007.5 |
| 20260505224405 | 25 | 232 | 16.1 | 37.0 | 0.00 | 0.00 | 0.00 | 30 | 1007.5 |
| 20260505224305 | 25 | 252 | 16.1 | 37.0 | 0.00 | 0.00 | 0.00 | 30 | 1007.5 |
| 20260505224206 | 25 | 266 | 16.1 | 37.0 | 0.00 | 0.00 | 0.00 | 30 | 1007.5 |
| 20260505224105 | 25 | 237 | 17.7 | 37.0 | 0.00 | 0.00 | 0.00 | 29 | 1007.5 |
| 20260505224004 | 25 | 265 | 17.7 | 37.0 | 0.00 | 0.00 | 0.00 | 29 | 1007.5 |
| 20260505223900 | 25 | 241 | 16.1 | 37.0 | 0.00 | 0.00 | 0.00 | 29 | 1007.5 |
| 20260505223754 | 25 | 202 | 16.1 | 33.8 | 0.00 | 0.00 | 0.00 | 29 | 1007.5 |
| 20260505223653 | 25 | 257 | 16.1 | 33.8 | 0.00 | 0.00 | 0.00 | 30 | 1007.5 |
| 20260505223548 | 25 | 265 | 16.1 | 33.8 | 0.00 | 0.00 | 0.00 | 29 | 1007.5 |
| 20260505223444 | 25 | 277 | 16.1 | 33.8 | 0.00 | 0.00 | 0.00 | 29 | 1007.5 |
| 20260505223349 | 25 | 249 | 17.7 | 33.8 | 0.00 | 0.00 | 0.00 | 29 | 1007.5 |
| 20260505223249 | 25 | 257 | 16.1 | 32.2 | 0.00 | 0.00 | 0.00 | 29 | 1007.5 |
| 20260505223152 | 25 | 236 | 17.7 | 30.6 | 0.00 | 0.00 | 0.00 | 29 | 1007.5 |
| 20260505223045 | 25 | 268 | 17.7 | 30.6 | 0.00 | 0.00 | 0.00 | 29 | 1007.5 |
| 20260505222951 | 25 | 257 | 17.7 | 32.2 | 0.00 | 0.00 | 0.00 | 29 | 1007.5 |
| 20260505222848 | 25 | 277 | 19.3 | 38.6 | 0.00 | 0.00 | 0.00 | 29 | 1007.5 |
| 20260505222746 | 25 | 291 | 19.3 | 38.6 | 0.00 | 0.00 | 0.00 | 29 | 1007.5 |
| 20260505222642 | 25 | 242 | 19.3 | 38.6 | 0.00 | 0.00 | 0.00 | 29 | 1007.0 |
| 20260505222544 | 25 | 237 | 19.3 | 38.6 | 0.00 | 0.00 | 0.00 | 29 | 1007.0 |
| 20260505222438 | 25 | 267 | 19.3 | 38.6 | 0.00 | 0.00 | 0.00 | 29 | 1007.1 |
| 20260505222332 | 25 | 260 | 19.3 | 38.6 | 0.00 | 0.00 | 0.00 | 28 | 1007.0 |
| 20260505222231 | 25 | 276 | 19.3 | 38.6 | 0.00 | 0.00 | 0.00 | 28 | 1007.1 |
| 20260505222138 | 25 | 275 | 19.3 | 38.6 | 0.00 | 0.00 | 0.00 | 28 | 1007.1 |
| 20260505222033 | 25 | 261 | 19.3 | 38.6 | 0.00 | 0.00 | 0.00 | 28 | 1007.1 |
| 20260505221932 | 25 | 280 | 17.7 | 38.6 | 0.00 | 0.00 | 0.00 | 27 | 1007.1 |
| 20260505221827 | 25 | 307 | 17.7 | 37.0 | 0.00 | 0.00 | 0.00 | 27 | 1007.2 |
| 20260505221730 | 26 | 280 | 17.7 | 37.0 | 0.00 | 0.00 | 0.00 | 27 | 1007.2 |
| 20260505221629 | 26 | 284 | 17.7 | 37.0 | 0.00 | 0.00 | 0.00 | 27 | 1007.4 |
| 20260505221522 | 26 | 273 | 17.7 | 37.0 | 0.00 | 0.00 | 0.00 | 27 | 1007.4 |
| 20260505221427 | 26 | 263 | 17.7 | 37.0 | 0.00 | 0.00 | 0.00 | 27 | 1007.5 |
| 20260505221323 | 26 | 270 | 17.7 | 37.0 | 0.00 | 0.00 | 0.00 | 27 | 1007.5 |
| 20260505221226 | 26 | 260 | 17.7 | 37.0 | 0.00 | 0.00 | 0.00 | 28 | 1007.5 |
| 20260505221119 | 26 | 258 | 17.7 | 35.4 | 0.00 | 0.00 | 0.00 | 28 | 1007.4 |
| 20260505221053 | 26 | 240 | 17.7 | 35.4 | 0.00 | 0.00 | 0.00 | 28 | 1007.4 |
| 20260505220922 | 26 | 226 | 17.7 | 35.4 | 0.00 | 0.00 | 0.00 | 27 | 1007.4 |
| 20260505220816 | 26 | 246 | 16.1 | 35.4 | 0.00 | 0.00 | 0.00 | 27 | 1007.4 |
| 20260505220709 | 26 | 256 | 16.1 | 35.4 | 0.00 | 0.00 | 0.00 | 28 | 1007.4 |
| 20260505220611 | 26 | 289 | 16.1 | 35.4 | 0.00 | 0.00 | 0.00 | 28 | 1007.4 |
| 20260505220508 | 26 | 261 | 16.1 | 35.4 | 0.00 | 0.00 | 0.00 | 28 | 1007.4 |
| 20260505220402 | 26 | 260 | 16.1 | 35.4 | 0.00 | 0.00 | 0.00 | 27 | 1007.4 |
| 20260505220258 | 26 | 271 | 14.5 | 35.4 | 0.00 | 0.00 | 0.00 | 28 | 1007.4 |
| 20260505220159 | 26 | 229 | 14.5 | 35.4 | 0.00 | 0.00 | 0.00 | 28 | 1007.4 |
| 20260505220058 | 26 | 207 | 12.9 | 35.4 | 0.00 | 0.00 | 0.00 | 28 | 1007.5 |
| 20260505220004 | 26 | 291 | 12.9 | 35.4 | 0.00 | 0.00 | 0.00 | 27 | 1007.5 |
| 20260505215853 | 26 | 223 | 14.5 | 35.4 | 0.00 | 0.00 | 0.00 | 27 | 1007.5 |
| 20260505215742 | 26 | 244 | 16.1 | 35.4 | 0.00 | 0.00 | 0.00 | 28 | 1007.5 |
| 20260505215640 | 26 | 302 | 16.1 | 38.6 | 0.00 | 0.00 | 0.00 | 28 | 1007.8 |
| 20260505215536 | 26 | 291 | 14.5 | 38.6 | 0.00 | 0.00 | 0.00 | 28 | 1007.8 |
| 20260505215439 | 26 | 234 | 14.5 | 38.6 | 0.00 | 0.00 | 0.00 | 29 | 1007.8 |
| 20260505215339 | 26 | 267 | 16.1 | 38.6 | 0.00 | 0.00 | 0.00 | 29 | 1007.8 |
| 20260505215242 | 26 | 298 | 17.7 | 38.6 | 0.00 | 0.00 | 0.00 | 28 | 1007.7 |
| 20260505215137 | 25 | 285 | 17.7 | 38.6 | 0.00 | 0.00 | 0.00 | 28 | 1007.6 |
| 20260505215037 | 25 | 273 | 17.7 | 38.6 | 0.00 | 0.00 | 0.00 | 28 | 1007.6 |
| 20260505214939 | 25 | 194 | 19.3 | 38.6 | 0.00 | 0.00 | 0.00 | 28 | 1007.6 |
| 20260505214837 | 26 | 230 | 19.3 | 38.6 | 0.00 | 0.00 | 0.00 | 28 | 1007.7 |
| 20260505214737 | 26 | 250 | 19.3 | 38.6 | 0.00 | 0.00 | 0.00 | 28 | 1007.7 |
| 20260505214644 | 26 | 301 | 17.7 | 38.6 | 0.00 | 0.00 | 0.00 | 28 | 1007.7 |
| 20260505214539 | 26 | 227 | 17.7 | 35.4 | 0.00 | 0.00 | 0.00 | 29 | 1007.7 |
| 20260505214435 | 26 | 242 | 19.3 | 37.0 | 0.00 | 0.00 | 0.00 | 28 | 1007.7 |
| 20260505214333 | 26 | 238 | 19.3 | 37.0 | 0.00 | 0.00 | 0.00 | 28 | 1007.7 |
| 20260505214238 | 26 | 280 | 17.7 | 37.0 | 0.00 | 0.00 | 0.00 | 28 | 1007.5 |
| 20260505214140 | 26 | 217 | 17.7 | 37.0 | 0.00 | 0.00 | 0.00 | 28 | 1007.5 |
| 20260505214033 | 26 | 234 | 17.7 | 37.0 | 0.00 | 0.00 | 0.00 | 27 | 1007.5 |
| 20260505213935 | 26 | 257 | 19.3 | 37.0 | 0.00 | 0.00 | 0.00 | 28 | 1007.5 |
| 20260505213827 | 26 | 282 | 20.9 | 38.6 | 0.00 | 0.00 | 0.00 | 28 | 1007.5 |
| 20260505213720 | 26 | 265 | 20.9 | 38.6 | 0.00 | 0.00 | 0.00 | 28 | 1007.5 |
| 20260505213616 | 26 | 281 | 20.9 | 38.6 | 0.00 | 0.00 | 0.00 | 28 | 1007.5 |
| 20260505213513 | 26 | 313 | 20.9 | 38.6 | 0.00 | 0.00 | 0.00 | 28 | 1007.5 |
| 20260505213409 | 26 | 284 | 19.3 | 38.6 | 0.00 | 0.00 | 0.00 | 28 | 1007.5 |
| 20260505213314 | 26 | 225 | 20.9 | 38.6 | 0.00 | 0.00 | 0.00 | 27 | 1007.5 |
| 20260505213159 | 26 | 237 | 20.9 | 38.6 | 0.00 | 0.00 | 0.00 | 28 | 1007.4 |
| 20260505213054 | 26 | 262 | 20.9 | 38.6 | 0.00 | 0.00 | 0.00 | 28 | 1007.5 |
| 20260505213000 | 26 | 328 | 20.9 | 41.8 | 0.00 | 0.00 | 0.00 | 27 | 1007.5 |
| 20260505212856 | 26 | 282 | 20.9 | 41.8 | 0.00 | 0.00 | 0.00 | 27 | 1007.5 |
| 20260505212757 | 26 | 278 | 20.9 | 41.8 | 0.00 | 0.00 | 0.00 | 27 | 1007.5 |
| 20260505212654 | 26 | 265 | 20.9 | 41.8 | 0.00 | 0.00 | 0.00 | 27 | 1007.8 |
| 20260505212556 | 26 | 300 | 20.9 | 41.8 | 0.00 | 0.00 | 0.00 | 27 | 1007.7 |
| 20260505212451 | 26 | 221 | 22.5 | 41.8 | 0.00 | 0.00 | 0.00 | 27 | 1007.7 |
| 20260505212345 | 26 | 253 | 24.1 | 43.5 | 0.00 | 0.00 | 0.00 | 27 | 1007.7 |
| 20260505212238 | 26 | 278 | 24.1 | 43.5 | 0.00 | 0.00 | 0.00 | 27 | 1007.7 |
| 20260505212140 | 26 | 283 | 24.1 | 43.5 | 0.00 | 0.00 | 0.00 | 27 | 1007.7 |
| 20260505212037 | 26 | 260 | 25.7 | 43.5 | 0.00 | 0.00 | 0.00 | 26 | 1007.7 |
| 20260505211936 | 26 | 233 | 24.1 | 43.5 | 0.00 | 0.00 | 0.00 | 27 | 1007.7 |
| 20260505211839 | 26 | 294 | 24.1 | 43.5 | 0.00 | 0.00 | 0.00 | 27 | 1007.7 |
| 20260505211739 | 26 | 268 | 24.1 | 43.5 | 0.00 | 0.00 | 0.00 | 27 | 1007.7 |
| 20260505211639 | 26 | 232 | 22.5 | 43.5 | 0.00 | 0.00 | 0.00 | 26 | 1007.7 |
| 20260505211534 | 26 | 247 | 20.9 | 43.5 | 0.00 | 0.00 | 0.00 | 27 | 1007.7 |
| 20260505211439 | 26 | 262 | 20.9 | 43.5 | 0.00 | 0.00 | 0.00 | 26 | 1007.8 |
| 20260505211333 | 26 | 274 | 20.9 | 40.2 | 0.00 | 0.00 | 0.00 | 26 | 1007.8 |
| 20260505211238 | 26 | 269 | 20.9 | 40.2 | 0.00 | 0.00 | 0.00 | 27 | 1007.2 |
| 20260505211130 | 26 | 292 | 20.9 | 40.2 | 0.00 | 0.00 | 0.00 | 27 | 1007.2 |
| 20260505211034 | 26 | 273 | 20.9 | 40.2 | 0.00 | 0.00 | 0.00 | 27 | 1007.2 |
| 20260505210934 | 26 | 227 | 19.3 | 40.2 | 0.00 | 0.00 | 0.00 | 28 | 1007.1 |
| 20260505210831 | 26 | 276 | 20.9 | 40.2 | 0.00 | 0.00 | 0.00 | 28 | 1007.1 |
| 20260505210711 | 26 | 233 | 20.9 | 40.2 | 0.00 | 0.00 | 0.00 | 26 | 1007.0 |
| 20260505210611 | 26 | 270 | 20.9 | 40.2 | 0.00 | 0.00 | 0.00 | 26 | 1007.1 |
| 20260505210511 | 26 | 214 | 20.9 | 40.2 | 0.00 | 0.00 | 0.00 | 26 | 1007.1 |
| 20260505210412 | 26 | 252 | 20.9 | 40.2 | 0.00 | 0.00 | 0.00 | 26 | 1007.2 |
| 20260505210306 | 26 | 235 | 20.9 | 38.6 | 0.00 | 0.00 | 0.00 | 26 | 1007.2 |
| 20260505210206 | 26 | 247 | 20.9 | 38.6 | 0.00 | 0.00 | 0.00 | 25 | 1007.4 |
| 20260505210059 | 26 | 234 | 20.9 | 38.6 | 0.00 | 0.00 | 0.00 | 26 | 1007.4 |
| 20260505210000 | 27 | 297 | 20.9 | 38.6 | 0.00 | 0.00 | 0.00 | 26 | 1007.4 |
| 20260505205901 | 27 | 294 | 20.9 | 43.5 | 0.00 | 0.00 | 0.00 | 26 | 1007.4 |
| 20260505205758 | 27 | 241 | 20.9 | 43.5 | 0.00 | 0.00 | 0.00 | 26 | 1007.4 |
| 20260505205652 | 27 | 233 | 22.5 | 43.5 | 0.00 | 0.00 | 0.00 | 26 | 1007.1 |
| 20260505205555 | 27 | 287 | 22.5 | 43.5 | 0.00 | 0.00 | 0.00 | 26 | 1007.1 |
| 20260505205450 | 27 | 252 | 22.5 | 43.5 | 0.00 | 0.00 | 0.00 | 25 | 1007.1 |
| 20260505205350 | 27 | 244 | 22.5 | 43.5 | 0.00 | 0.00 | 0.00 | 26 | 1007.1 |
| 20260505205254 | 27 | 278 | 20.9 | 43.5 | 0.00 | 0.00 | 0.00 | 26 | 1007.2 |
| 20260505205140 | 27 | 282 | 20.9 | 43.5 | 0.00 | 0.00 | 0.00 | 26 | 1007.1 |
| 20260505205037 | 27 | 250 | 22.5 | 43.5 | 0.00 | 0.00 | 0.00 | 25 | 1007.1 |
| 20260505204939 | 27 | 248 | 22.5 | 43.5 | 0.00 | 0.00 | 0.00 | 25 | 1007.1 |
| 20260505204839 | 27 | 311 | 22.5 | 43.5 | 0.00 | 0.00 | 0.00 | 25 | 1007.1 |
| 20260505204736 | 27 | 261 | 22.5 | 43.5 | 0.00 | 0.00 | 0.00 | 25 | 1007.1 |
| 20260505204637 | 27 | 250 | 22.5 | 43.5 | 0.00 | 0.00 | 0.00 | 25 | 1007.1 |
| 20260505204539 | 26 | 240 | 20.9 | 43.5 | 0.00 | 0.00 | 0.00 | 25 | 1007.0 |
| 20260505204445 | 26 | 318 | 20.9 | 43.5 | 0.00 | 0.00 | 0.00 | 24 | 1007.0 |
| 20260505204341 | 26 | 257 | 20.9 | 43.5 | 0.00 | 0.00 | 0.00 | 24 | 1007.0 |
| 20260505204244 | 27 | 263 | 20.9 | 43.5 | 0.00 | 0.00 | 0.00 | 24 | 1007.0 |
| 20260505204206 | 27 | 243 | 20.9 | 43.5 | 0.00 | 0.00 | 0.00 | 24 | 1007.1 |
| 20260505204137 | 27 | 224 | 19.3 | 40.2 | 0.00 | 0.00 | 0.00 | 25 | 1007.1 |
| 20260505203943 | 27 | 251 | 17.7 | 40.2 | 0.00 | 0.00 | 0.00 | 25 | 1007.1 |
| 20260505203830 | 27 | 315 | 17.7 | 38.6 | 0.00 | 0.00 | 0.00 | 24 | 1007.0 |
| 20260505203723 | 27 | 289 | 17.7 | 38.6 | 0.00 | 0.00 | 0.00 | 24 | 1007.0 |
| 20260505203628 | 27 | 277 | 17.7 | 38.6 | 0.00 | 0.00 | 0.00 | 24 | 1007.0 |
| 20260505203524 | 26 | 225 | 17.7 | 38.6 | 0.00 | 0.00 | 0.00 | 24 | 1007.0 |
| 20260505203435 | 26 | 278 | 17.7 | 38.6 | 0.00 | 0.00 | 0.00 | 24 | 1007.0 |
| 20260505203329 | 27 | 271 | 17.7 | 38.6 | 0.00 | 0.00 | 0.00 | 24 | 1007.1 |
| 20260505203230 | 27 | 257 | 17.7 | 41.8 | 0.00 | 0.00 | 0.00 | 24 | 1007.1 |
| 20260505203129 | 27 | 228 | 17.7 | 41.8 | 0.00 | 0.00 | 0.00 | 24 | 1007.1 |
| 20260505203023 | 27 | 294 | 16.1 | 41.8 | 0.00 | 0.00 | 0.00 | 24 | 1007.2 |
| 20260505202925 | 27 | 263 | 17.7 | 41.8 | 0.00 | 0.00 | 0.00 | 24 | 1007.2 |
| 20260505202821 | 27 | 243 | 17.7 | 41.8 | 0.00 | 0.00 | 0.00 | 24 | 1007.2 |
| 20260505202719 | 27 | 260 | 16.1 | 41.8 | 0.00 | 0.00 | 0.00 | 24 | 1007.0 |
| 20260505202610 | 27 | 271 | 17.7 | 41.8 | 0.00 | 0.00 | 0.00 | 24 | 1007.0 |
| 20260505202509 | 27 | 265 | 17.7 | 41.8 | 0.00 | 0.00 | 0.00 | 24 | 1006.9 |
| 20260505202413 | 27 | 265 | 17.7 | 41.8 | 0.00 | 0.00 | 0.00 | 24 | 1006.9 |
| 20260505202301 | 27 | 213 | 16.1 | 41.8 | 0.00 | 0.00 | 0.00 | 23 | 1006.9 |
| 20260505202204 | 27 | 283 | 16.1 | 38.6 | 0.00 | 0.00 | 0.00 | 23 | 1007.0 |
| 20260505202050 | 27 | 278 | 16.1 | 38.6 | 0.00 | 0.00 | 0.00 | 24 | 1007.0 |
| 20260505201942 | 27 | 234 | 16.1 | 33.8 | 0.00 | 0.00 | 0.00 | 23 | 1007.0 |
| 20260505201845 | 27 | 234 | 16.1 | 33.8 | 0.00 | 0.00 | 0.00 | 23 | 1007.0 |
| 20260505201743 | 27 | 227 | 16.1 | 33.8 | 0.00 | 0.00 | 0.00 | 23 | 1007.0 |
| 20260505201639 | 27 | 271 | 16.1 | 33.8 | 0.00 | 0.00 | 0.00 | 23 | 1007.1 |
| 20260505201538 | 27 | 277 | 17.7 | 38.6 | 0.00 | 0.00 | 0.00 | 23 | 1007.1 |
| 20260505201437 | 27 | 285 | 17.7 | 41.8 | 0.00 | 0.00 | 0.00 | 23 | 1007.1 |
| 20260505201334 | 27 | 236 | 16.1 | 41.8 | 0.00 | 0.00 | 0.00 | 24 | 1007.1 |
| 20260505201236 | 27 | 242 | 16.1 | 41.8 | 0.00 | 0.00 | 0.00 | 24 | 1007.7 |
| 20260505201133 | 27 | 248 | 16.1 | 41.8 | 0.00 | 0.00 | 0.00 | 23 | 1007.7 |
| 20260505201021 | 27 | 239 | 16.1 | 41.8 | 0.00 | 0.00 | 0.00 | 22 | 1007.7 |
| 20260505200955 | 27 | 252 | 16.1 | 41.8 | 0.00 | 0.00 | 0.00 | 22 | 1007.7 |
| 20260505200814 | 27 | 244 | 16.1 | 41.8 | 0.00 | 0.00 | 0.00 | 23 | 1007.7 |
| 20260505200716 | 27 | 289 | 16.1 | 41.8 | 0.00 | 0.00 | 0.00 | 23 | 1007.7 |
| 20260505200614 | 27 | 228 | 14.5 | 41.8 | 0.00 | 0.00 | 0.00 | 23 | 1007.7 |
| 20260505200512 | 27 | 247 | 14.5 | 41.8 | 0.00 | 0.00 | 0.00 | 23 | 1007.7 |
| 20260505200411 | 27 | 252 | 14.5 | 41.8 | 0.00 | 0.00 | 0.00 | 23 | 1007.7 |
| 20260505200312 | 27 | 296 | 14.5 | 41.8 | 0.00 | 0.00 | 0.00 | 23 | 1007.7 |
| 20260505200213 | 27 | 252 | 14.5 | 41.8 | 0.00 | 0.00 | 0.00 | 22 | 1007.6 |
| 20260505200106 | 27 | 220 | 14.5 | 41.8 | 0.00 | 0.00 | 0.00 | 22 | 1007.7 |
| 20260505200006 | 27 | 269 | 14.5 | 41.8 | 0.00 | 0.00 | 0.00 | 23 | 1007.7 |
| 20260505195904 | 27 | 244 | 14.5 | 41.8 | 0.00 | 0.00 | 0.00 | 24 | 1007.7 |
| 20260505195803 | 27 | 267 | 12.9 | 41.8 | 0.00 | 0.00 | 0.00 | 23 | 1007.6 |
| 20260505195701 | 27 | 273 | 12.9 | 41.8 | 0.00 | 0.00 | 0.00 | 24 | 1007.9 |
| 20260505195601 | 27 | 219 | 12.9 | 41.8 | 0.00 | 0.00 | 0.00 | 23 | 1007.8 |
| 20260505195456 | 27 | 205 | 12.9 | 32.2 | 0.00 | 0.00 | 0.00 | 23 | 1007.8 |
| 20260505195400 | 26 | 296 | 12.9 | 32.2 | 0.00 | 0.00 | 0.00 | 23 | 1007.7 |
| 20260505195251 | 26 | 229 | 11.3 | 25.7 | 0.00 | 0.00 | 0.00 | 23 | 1007.7 |
| 20260505195158 | 26 | 166 | 11.3 | 24.1 | 0.00 | 0.00 | 0.00 | 23 | 1007.7 |
| 20260505195040 | 26 | 267 | 12.9 | 29.0 | 0.00 | 0.00 | 0.00 | 23 | 1007.7 |
| 20260505194946 | 26 | 261 | 12.9 | 33.8 | 0.00 | 0.00 | 0.00 | 24 | 1007.7 |
| 20260505194743 | 26 | 248 | 12.9 | 33.8 | 0.00 | 0.00 | 0.00 | 23 | 1007.7 |
| 20260505194640 | 26 | 289 | 12.9 | 33.8 | 0.00 | 0.00 | 0.00 | 23 | 1007.7 |
| 20260505194537 | 26 | 229 | 14.5 | 33.8 | 0.00 | 0.00 | 0.00 | 23 | 1007.7 |
| 20260505194442 | 26 | 188 | 14.5 | 33.8 | 0.00 | 0.00 | 0.00 | 23 | 1007.7 |
| 20260505194337 | 26 | 273 | 16.1 | 33.8 | 0.00 | 0.00 | 0.00 | 23 | 1007.7 |
| 20260505194234 | 26 | 213 | 16.1 | 33.8 | 0.00 | 0.00 | 0.00 | 23 | 1007.6 |
| 20260505194129 | 26 | 201 | 16.1 | 33.8 | 0.00 | 0.00 | 0.00 | 23 | 1007.6 |
| 20260505194027 | 26 | 254 | 16.1 | 33.8 | 0.00 | 0.00 | 0.00 | 23 | 1007.6 |
| 20260505193925 | 26 | 244 | 16.1 | 33.8 | 0.00 | 0.00 | 0.00 | 23 | 1007.5 |
| 20260505193823 | 26 | 219 | 16.1 | 33.8 | 0.00 | 0.00 | 0.00 | 22 | 1007.5 |
| 20260505193723 | 26 | 305 | 16.1 | 33.8 | 0.00 | 0.00 | 0.00 | 23 | 1007.5 |
| 20260505193657 | 26 | 244 | 16.1 | 37.0 | 0.00 | 0.00 | 0.00 | 23 | 1007.5 |
| 20260505193621 | 26 | 244 | 16.1 | 37.0 | 0.00 | 0.00 | 0.00 | 23 | 1007.5 |
| 20260505193525 | 26 | 259 | 16.1 | 37.0 | 0.00 | 0.00 | 0.00 | 23 | 1007.5 |
| 20260505193419 | 26 | 238 | 16.1 | 37.0 | 0.00 | 0.00 | 0.00 | 23 | 1007.4 |
| 20260505193310 | 26 | 261 | 14.5 | 37.0 | 0.00 | 0.00 | 0.00 | 23 | 1007.4 |
| 20260505193209 | 26 | 257 | 14.5 | 37.0 | 0.00 | 0.00 | 0.00 | 23 | 1007.4 |
| 20260505193119 | 26 | 216 | 14.5 | 37.0 | 0.00 | 0.00 | 0.00 | 23 | 1007.4 |
| 20260505193013 | 26 | 324 | 16.1 | 37.0 | 0.00 | 0.00 | 0.00 | 23 | 1007.4 |
| 20260505192910 | 26 | 233 | 16.1 | 37.0 | 0.00 | 0.00 | 0.00 | 23 | 1007.4 |
| 20260505192810 | 26 | 274 | 16.1 | 37.0 | 0.00 | 0.00 | 0.00 | 22 | 1007.2 |
| 20260505192710 | 26 | 246 | 16.1 | 37.0 | 0.00 | 0.00 | 0.00 | 23 | 1007.7 |
| 20260505192611 | 26 | 223 | 16.1 | 37.0 | 0.00 | 0.00 | 0.00 | 23 | 1007.7 |
| 20260505192517 | 26 | 303 | 16.1 | 37.0 | 0.00 | 0.00 | 0.00 | 23 | 1007.7 |
| 20260505192410 | 26 | 263 | 17.7 | 37.0 | 0.00 | 0.00 | 0.00 | 23 | 1007.6 |
| 20260505192305 | 26 | 213 | 17.7 | 37.0 | 0.00 | 0.00 | 0.00 | 23 | 1007.6 |
| 20260505192201 | 25 | 211 | 17.7 | 37.0 | 0.00 | 0.00 | 0.00 | 22 | 1007.6 |
| 20260505192106 | 25 | 240 | 17.7 | 37.0 | 0.00 | 0.00 | 0.00 | 22 | 1007.6 |
| 20260505192007 | 25 | 202 | 17.7 | 37.0 | 0.00 | 0.00 | 0.00 | 22 | 1007.6 |
| 20260505191859 | 25 | 289 | 17.7 | 37.0 | 0.00 | 0.00 | 0.00 | 22 | 1007.6 |
| 20260505191755 | 25 | 225 | 17.7 | 37.0 | 0.00 | 0.00 | 0.00 | 22 | 1007.6 |
| 20260505191655 | 25 | 221 | 17.7 | 37.0 | 0.00 | 0.00 | 0.00 | 22 | 1007.5 |
| 20260505191557 | 25 | 241 | 16.1 | 35.4 | 0.00 | 0.00 | 0.00 | 22 | 1007.5 |
| 20260505191455 | 25 | 270 | 16.1 | 35.4 | 0.00 | 0.00 | 0.00 | 22 | 1007.5 |
| 20260505191345 | 25 | 221 | 16.1 | 35.4 | 0.00 | 0.00 | 0.00 | 22 | 1007.5 |
| 20260505191248 | 25 | 228 | 16.1 | 35.4 | 0.00 | 0.00 | 0.00 | 22 | 1007.4 |
| 20260505191142 | 25 | 232 | 16.1 | 35.4 | 0.00 | 0.00 | 0.00 | 22 | 1007.4 |
| 20260505191035 | 25 | 196 | 14.5 | 35.4 | 0.00 | 0.00 | 0.00 | 22 | 1007.4 |
| 20260505190942 | 25 | 286 | 14.5 | 35.4 | 0.00 | 0.00 | 0.00 | 22 | 1007.2 |
| 20260505190837 | 25 | 246 | 14.5 | 30.6 | 0.00 | 0.00 | 0.00 | 22 | 1007.2 |
| 20260505190739 | 25 | 271 | 14.5 | 30.6 | 0.00 | 0.00 | 0.00 | 22 | 1007.2 |
| 20260505190637 | 25 | 250 | 14.5 | 32.2 | 0.00 | 0.00 | 0.00 | 21 | 1007.2 |
| 20260505190540 | 25 | 227 | 14.5 | 32.2 | 0.00 | 0.00 | 0.00 | 21 | 1007.2 |
| 20260505190433 | 25 | 234 | 14.5 | 32.2 | 0.00 | 0.00 | 0.00 | 21 | 1007.2 |
| 20260505190339 | 25 | 233 | 14.5 | 32.2 | 0.00 | 0.00 | 0.00 | 21 | 1007.2 |
| 20260505190235 | 25 | 238 | 14.5 | 32.2 | 0.00 | 0.00 | 0.00 | 22 | 1007.2 |
| 20260505190129 | 25 | 286 | 14.5 | 32.2 | 0.00 | 0.00 | 0.00 | 22 | 1007.2 |
| 20260505190027 | 25 | 259 | 14.5 | 32.2 | 0.00 | 0.00 | 0.00 | 22 | 1007.1 |
| 20260505185929 | 25 | 219 | 14.5 | 32.2 | 0.00 | 0.00 | 0.00 | 22 | 1007.1 |
| 20260505185829 | 25 | 211 | 14.5 | 32.2 | 0.00 | 0.00 | 0.00 | 22 | 1007.1 |
| 20260505185726 | 25 | 198 | 12.9 | 32.2 | 0.00 | 0.00 | 0.00 | 22 | 1007.6 |
| 20260505185629 | 25 | 268 | 11.3 | 25.7 | 0.00 | 0.00 | 0.00 | 22 | 1007.6 |
| 20260505185526 | 25 | 240 | 11.3 | 24.1 | 0.00 | 0.00 | 0.00 | 22 | 1007.6 |
| 20260505185420 | 25 | 234 | 11.3 | 24.1 | 0.00 | 0.00 | 0.00 | 22 | 1007.6 |
| 20260505185318 | 25 | 223 | 11.3 | 29.0 | 0.00 | 0.00 | 0.00 | 22 | 1007.6 |
| 20260505185220 | 25 | 248 | 11.3 | 29.0 | 0.00 | 0.00 | 0.00 | 22 | 1007.6 |
| 20260505185118 | 24 | 286 | 11.3 | 29.0 | 0.00 | 0.00 | 0.00 | 22 | 1007.6 |
| 20260505185017 | 24 | 252 | 11.3 | 29.0 | 0.00 | 0.00 | 0.00 | 22 | 1007.6 |
| 20260505184909 | 24 | 254 | 11.3 | 29.0 | 0.00 | 0.00 | 0.00 | 22 | 1007.5 |
| 20260505184808 | 24 | 246 | 11.3 | 29.0 | 0.00 | 0.00 | 0.00 | 22 | 1007.5 |
| 20260505184710 | 24 | 254 | 12.9 | 29.0 | 0.00 | 0.00 | 0.00 | 22 | 1007.5 |
| 20260505184611 | 24 | 252 | 12.9 | 29.0 | 0.00 | 0.00 | 0.00 | 22 | 1007.5 |
| 20260505184506 | 24 | 229 | 12.9 | 29.0 | 0.00 | 0.00 | 0.00 | 21 | 1007.4 |
| 20260505184405 | 24 | 216 | 11.3 | 29.0 | 0.00 | 0.00 | 0.00 | 21 | 1007.4 |
| 20260505184306 | 24 | 324 | 11.3 | 29.0 | 0.00 | 0.00 | 0.00 | 21 | 1007.4 |
| 20260505184159 | 24 | 256 | 11.3 | 29.0 | 0.00 | 0.00 | 0.00 | 22 | 1007.6 |
| 20260505184055 | 24 | 247 | 9.7 | 29.0 | 0.00 | 0.00 | 0.00 | 22 | 1007.6 |
| 20260505183956 | 24 | 219 | 9.7 | 29.0 | 0.00 | 0.00 | 0.00 | 22 | 1007.6 |
| 20260505183849 | 24 | 271 | 9.7 | 29.0 | 0.00 | 0.00 | 0.00 | 21 | 1007.6 |
| 20260505183742 | 24 | 300 | 9.7 | 29.0 | 0.00 | 0.00 | 0.00 | 22 | 1007.6 |
| 20260505183641 | 24 | 247 | 9.7 | 20.9 | 0.00 | 0.00 | 0.00 | 22 | 1007.6 |
| 20260505183542 | 24 | 261 | 9.7 | 22.5 | 0.00 | 0.00 | 0.00 | 22 | 1007.6 |
| 20260505183440 | 24 | 262 | 11.3 | 22.5 | 0.00 | 0.00 | 0.00 | 22 | 1007.6 |
| 20260505183337 | 24 | 195 | 11.3 | 22.5 | 0.00 | 0.00 | 0.00 | 22 | 1007.6 |
| 20260505183235 | 24 | 237 | 11.3 | 22.5 | 0.00 | 0.00 | 0.00 | 22 | 1007.6 |
| 20260505183135 | 24 | 205 | 12.9 | 22.5 | 0.00 | 0.00 | 0.00 | 21 | 1007.6 |
| 20260505183034 | 24 | 229 | 12.9 | 22.5 | 0.00 | 0.00 | 0.00 | 21 | 1007.6 |
| 20260505182939 | 24 | 227 | 12.9 | 25.7 | 0.00 | 0.00 | 0.00 | 21 | 1007.6 |
| 20260505182831 | 24 | 226 | 12.9 | 25.7 | 0.00 | 0.00 | 0.00 | 21 | 1007.6 |
| 20260505182735 | 24 | 183 | 12.9 | 25.7 | 0.00 | 0.00 | 0.00 | 21 | 1007.6 |
| 20260505182630 | 24 | 274 | 14.5 | 29.0 | 0.00 | 0.00 | 0.00 | 21 | 1007.6 |
| 20260505182529 | 24 | 248 | 12.9 | 29.0 | 0.00 | 0.00 | 0.00 | 21 | 1007.6 |
| 20260505182426 | 24 | 246 | 12.9 | 29.0 | 0.00 | 0.00 | 0.00 | 21 | 1007.6 |
| 20260505182327 | 24 | 243 | 12.9 | 29.0 | 0.00 | 0.00 | 0.00 | 21 | 1007.6 |
| 20260505182226 | 24 | 233 | 12.9 | 29.0 | 0.00 | 0.00 | 0.00 | 21 | 1007.6 |
| 20260505182126 | 24 | 217 | 12.9 | 30.6 | 0.00 | 0.00 | 0.00 | 21 | 1007.6 |
| 20260505182018 | 24 | 220 | 12.9 | 30.6 | 0.00 | 0.00 | 0.00 | 21 | 1007.6 |
| 20260505181920 | 24 | 215 | 12.9 | 30.6 | 0.00 | 0.00 | 0.00 | 21 | 1007.6 |
| 20260505181820 | 24 | 252 | 14.5 | 30.6 | 0.00 | 0.00 | 0.00 | 20 | 1007.6 |
| 20260505181722 | 24 | 224 | 12.9 | 30.6 | 0.00 | 0.00 | 0.00 | 21 | 1007.6 |
| 20260505181614 | 24 | 171 | 12.9 | 30.6 | 0.00 | 0.00 | 0.00 | 21 | 1007.6 |
| 20260505181507 | 24 | 284 | 12.9 | 30.6 | 0.00 | 0.00 | 0.00 | 21 | 1007.6 |
| 20260505181403 | 24 | 267 | 14.5 | 30.6 | 0.00 | 0.00 | 0.00 | 21 | 1007.6 |
| 20260505181301 | 24 | 255 | 14.5 | 30.6 | 0.00 | 0.00 | 0.00 | 21 | 1007.6 |
| 20260505181204 | 24 | 227 | 12.9 | 30.6 | 0.00 | 0.00 | 0.00 | 22 | 1007.1 |
| 20260505181109 | 24 | 259 | 12.9 | 25.7 | 0.00 | 0.00 | 0.00 | 22 | 1007.1 |
| 20260505181005 | 24 | 277 | 14.5 | 25.7 | 0.00 | 0.00 | 0.00 | 22 | 1007.1 |
| 20260505180909 | 24 | 280 | 14.5 | 30.6 | 0.00 | 0.00 | 0.00 | 22 | 1007.2 |
| 20260505180802 | 24 | 232 | 14.5 | 32.2 | 0.00 | 0.00 | 0.00 | 23 | 1007.2 |
| 20260505180658 | 24 | 246 | 14.5 | 32.2 | 0.00 | 0.00 | 0.00 | 24 | 1007.2 |
| 20260505180604 | 24 | 228 | 14.5 | 32.2 | 0.00 | 0.00 | 0.00 | 24 | 1007.2 |
| 20260505180502 | 24 | 226 | 14.5 | 32.2 | 0.00 | 0.00 | 0.00 | 25 | 1007.2 |
| 20260505180356 | 24 | 259 | 14.5 | 32.2 | 0.00 | 0.00 | 0.00 | 25 | 1007.2 |
| 20260505180304 | 24 | 254 | 14.5 | 32.2 | 0.00 | 0.00 | 0.00 | 24 | 1007.2 |
| 20260505180202 | 24 | 242 | 14.5 | 32.2 | 0.00 | 0.00 | 0.00 | 24 | 1007.2 |
| 20260505180059 | 24 | 231 | 14.5 | 32.2 | 0.00 | 0.00 | 0.00 | 25 | 1007.2 |
| 20260505175955 | 24 | 231 | 14.5 | 32.2 | 0.00 | 0.00 | 0.00 | 25 | 1007.2 |
| 20260505175856 | 24 | 199 | 14.5 | 32.2 | 0.00 | 0.00 | 0.00 | 25 | 1007.2 |
| 20260505175748 | 24 | 258 | 14.5 | 29.0 | 0.00 | 0.00 | 0.00 | 25 | 1007.4 |
| 20260505175646 | 24 | 254 | 14.5 | 29.0 | 0.00 | 0.00 | 0.00 | 25 | 1007.4 |
| 20260505175549 | 24 | 302 | 14.5 | 29.0 | 0.00 | 0.00 | 0.00 | 24 | 1007.4 |
| 20260505175447 | 24 | 227 | 14.5 | 29.0 | 0.00 | 0.00 | 0.00 | 24 | 1007.4 |
| 20260505175347 | 24 | 173 | 14.5 | 29.0 | 0.00 | 0.00 | 0.00 | 25 | 1007.4 |
| 20260505175237 | 24 | 235 | 14.5 | 33.8 | 0.00 | 0.00 | 0.00 | 25 | 1007.4 |
| 20260505175137 | 24 | 277 | 14.5 | 33.8 | 0.00 | 0.00 | 0.00 | 25 | 1007.4 |
| 20260505175041 | 24 | 207 | 14.5 | 33.8 | 0.00 | 0.00 | 0.00 | 26 | 1007.4 |
| 20260505174936 | 24 | 232 | 12.9 | 33.8 | 0.00 | 0.00 | 0.00 | 26 | 1007.4 |
| 20260505174842 | 25 | 213 | 12.9 | 33.8 | 0.00 | 0.00 | 0.00 | 26 | 1007.4 |
| 20260505174739 | 25 | 279 | 12.9 | 33.8 | 0.00 | 0.00 | 0.00 | 26 | 1007.4 |
| 20260505174633 | 25 | 246 | 12.9 | 33.8 | 0.00 | 0.00 | 0.00 | 26 | 1007.4 |
| 20260505174533 | 25 | 260 | 11.3 | 33.8 | 0.00 | 0.00 | 0.00 | 26 | 1007.4 |
| 20260505174428 | 25 | 246 | 11.3 | 33.8 | 0.00 | 0.00 | 0.00 | 26 | 1007.4 |
| 20260505174329 | 25 | 259 | 11.3 | 33.8 | 0.00 | 0.00 | 0.00 | 26 | 1007.5 |
| 20260505174211 | 25 | 253 | 11.3 | 22.5 | 0.00 | 0.00 | 0.00 | 27 | 1007.4 |
| 20260505174111 | 25 | 221 | 11.3 | 22.5 | 0.00 | 0.00 | 0.00 | 27 | 1007.4 |
| 20260505174015 | 25 | 232 | 11.3 | 22.5 | 0.00 | 0.00 | 0.00 | 27 | 1007.4 |
| 20260505173911 | 25 | 251 | 11.3 | 22.5 | 0.00 | 0.00 | 0.00 | 27 | 1007.4 |
| 20260505173816 | 25 | 255 | 11.3 | 22.5 | 0.00 | 0.00 | 0.00 | 27 | 1007.4 |
| 20260505173712 | 25 | 252 | 11.3 | 22.5 | 0.00 | 0.00 | 0.00 | 27 | 1007.4 |
| 20260505173606 | 25 | 216 | 11.3 | 22.5 | 0.00 | 0.00 | 0.00 | 26 | 1007.4 |
| 20260505173508 | 25 | 227 | 11.3 | 22.5 | 0.00 | 0.00 | 0.00 | 27 | 1007.4 |
| 20260505173408 | 25 | 257 | 11.3 | 19.3 | 0.00 | 0.00 | 0.00 | 27 | 1007.4 |
| 20260505173300 | 25 | 262 | 11.3 | 19.3 | 0.00 | 0.00 | 0.00 | 27 | 1007.4 |
| 20260505173149 | 25 | 252 | 11.3 | 24.1 | 0.00 | 0.00 | 0.00 | 27 | 1007.4 |
| 20260505173052 | 25 | 251 | 11.3 | 24.1 | 0.00 | 0.00 | 0.00 | 27 | 1007.4 |
| 20260505172954 | 25 | 232 | 11.3 | 24.1 | 0.00 | 0.00 | 0.00 | 27 | 1007.4 |
| 20260505172847 | 25 | 235 | 9.7 | 24.1 | 0.00 | 0.00 | 0.00 | 27 | 1007.4 |
| 20260505172738 | 25 | 220 | 9.7 | 24.1 | 0.00 | 0.00 | 0.00 | 27 | 1007.4 |
| 20260505172636 | 25 | 221 | 9.7 | 24.1 | 0.00 | 0.00 | 0.00 | 28 | 1007.4 |
| 20260505172537 | 25 | 248 | 9.7 | 24.1 | 0.00 | 0.00 | 0.00 | 28 | 1007.4 |
| 20260505172436 | 25 | 277 | 9.7 | 24.1 | 0.00 | 0.00 | 0.00 | 28 | 1007.4 |
| 20260505172342 | 25 | 246 | 9.7 | 25.7 | 0.00 | 0.00 | 0.00 | 28 | 1007.5 |
| 20260505172238 | 25 | 267 | 11.3 | 25.7 | 0.00 | 0.00 | 0.00 | 28 | 1007.5 |
| 20260505172124 | 25 | 232 | 11.3 | 25.7 | 0.00 | 0.00 | 0.00 | 29 | 1007.5 |
| 20260505172032 | 25 | 209 | 11.3 | 25.7 | 0.00 | 0.00 | 0.00 | 29 | 1007.5 |
| 20260505171924 | 25 | 254 | 9.7 | 25.7 | 0.00 | 0.00 | 0.00 | 29 | 1007.5 |
| 20260505171825 | 25 | 211 | 9.7 | 25.7 | 0.00 | 0.00 | 0.00 | 29 | 1007.5 |
| 20260505171728 | 25 | 237 | 8.0 | 25.7 | 0.00 | 0.00 | 0.00 | 29 | 1007.4 |
| 20260505171620 | 25 | 225 | 8.0 | 25.7 | 0.00 | 0.00 | 0.00 | 29 | 1007.4 |
| 20260505171518 | 25 | 253 | 8.0 | 25.7 | 0.00 | 0.00 | 0.00 | 29 | 1007.4 |
| 20260505171418 | 25 | 229 | 4.8 | 25.7 | 0.00 | 0.00 | 0.00 | 29 | 1007.5 |
| 20260505171315 | 25 | 231 | 4.8 | 24.1 | 0.00 | 0.00 | 0.00 | 29 | 1007.5 |
| 20260505171214 | 25 | 218 | 3.2 | 22.5 | 0.00 | 0.00 | 0.00 | 30 | 1007.4 |
| 20260505171113 | 25 | 234 | 3.2 | 22.5 | 0.00 | 0.00 | 0.00 | 31 | 1007.4 |
| 20260505171017 | 25 | 265 | 1.6 | 14.5 | 0.00 | 0.00 | 0.00 | 31 | 1007.4 |
| 20260505170908 | 24 | 133 | 3.2 | 9.7 | 0.00 | 0.00 | 0.00 | 32 | 1007.4 |
| 20260505170811 | 24 | 134 | 3.2 | 14.5 | 0.00 | 0.00 | 0.00 | 33 | 1007.2 |
| 20260505170711 | 24 | 209 | 3.2 | 14.5 | 0.00 | 0.00 | 0.00 | 33 | 1007.2 |
| 20260505170609 | 24 | 207 | 3.2 | 14.5 | 0.00 | 0.00 | 0.00 | 33 | 1007.1 |
| 20260505170511 | 24 | 175 | 4.8 | 14.5 | 0.00 | 0.00 | 0.00 | 34 | 1007.1 |
| 20260505170407 | 24 | 88 | 4.8 | 14.5 | 0.00 | 0.00 | 0.00 | 34 | 1007.1 |
| 20260505170342 | 24 | 71 | 4.8 | 14.5 | 0.00 | 0.00 | 0.00 | 33 | 1007.1 |
| 20260505170204 | 24 | 125 | 4.8 | 14.5 | 0.00 | 0.00 | 0.00 | 33 | 1007.1 |
| 20260505170104 | 24 | 126 | 4.8 | 14.5 | 0.00 | 0.00 | 0.00 | 33 | 1007.1 |
| 20260505170007 | 23 | 94 | 4.8 | 14.5 | 0.00 | 0.00 | 0.00 | 33 | 1007.1 |
| 20260505165906 | 23 | 128 | 4.8 | 14.5 | 0.00 | 0.00 | 0.00 | 33 | 1007.1 |
| 20260505165802 | 23 | 110 | 4.8 | 14.5 | 0.00 | 0.00 | 0.00 | 34 | 1007.1 |
| 20260505165707 | 23 | 86 | 6.4 | 14.5 | 0.00 | 0.00 | 0.00 | 34 | 1007.4 |
| 20260505165553 | 23 | 97 | 6.4 | 14.5 | 0.00 | 0.00 | 0.00 | 34 | 1007.4 |
| 20260505165455 | 23 | 101 | 4.8 | 14.5 | 0.00 | 0.00 | 0.00 | 34 | 1007.4 |
| 20260505165345 | 23 | 119 | 4.8 | 14.5 | 0.00 | 0.00 | 0.00 | 34 | 1007.4 |
| 20260505165248 | 23 | 140 | 4.8 | 14.5 | 0.00 | 0.00 | 0.00 | 34 | 1007.2 |
| 20260505165149 | 23 | 86 | 4.8 | 12.9 | 0.00 | 0.00 | 0.00 | 36 | 1007.2 |
| 20260505165037 | 23 | 119 | 4.8 | 12.9 | 0.00 | 0.00 | 0.00 | 36 | 1007.2 |
| 20260505164941 | 23 | 123 | 4.8 | 12.9 | 0.00 | 0.00 | 0.00 | 36 | 1007.2 |
| 20260505164824 | 23 | 112 | 4.8 | 12.9 | 0.00 | 0.00 | 0.00 | 36 | 1007.2 |
| 20260505164728 | 23 | 106 | 4.8 | 12.9 | 0.00 | 0.00 | 0.00 | 35 | 1007.2 |
| 20260505164632 | 23 | 117 | 4.8 | 12.9 | 0.00 | 0.00 | 0.00 | 36 | 1007.2 |
| 20260505164512 | 23 | 115 | 4.8 | 12.9 | 0.00 | 0.00 | 0.00 | 36 | 1007.2 |
| 20260505164414 | 23 | 124 | 4.8 | 12.9 | 0.00 | 0.00 | 0.00 | 36 | 1007.1 |
| 20260505164312 | 23 | 248 | 4.8 | 12.9 | 0.00 | 0.00 | 0.00 | 36 | 1007.1 |
| 20260505164210 | 23 | 155 | 4.8 | 11.3 | 0.00 | 0.00 | 0.00 | 35 | 1007.2 |
| 20260505164117 | 23 | 185 | 4.8 | 11.3 | 0.00 | 0.00 | 0.00 | 36 | 1007.2 |
| 20260505164013 | 23 | 134 | 4.8 | 11.3 | 0.00 | 0.00 | 0.00 | 36 | 1007.1 |
| 20260505163913 | 23 | 116 | 4.8 | 11.3 | 0.00 | 0.00 | 0.00 | 36 | 1007.1 |
| 20260505163808 | 23 | 161 | 4.8 | 11.3 | 0.00 | 0.00 | 0.00 | 36 | 1007.1 |
| 20260505163710 | 23 | 164 | 4.8 | 11.3 | 0.00 | 0.00 | 0.00 | 36 | 1007.1 |
| 20260505163611 | 23 | 146 | 4.8 | 11.3 | 0.00 | 0.00 | 0.00 | 37 | 1007.1 |
| 20260505163510 | 23 | 128 | 4.8 | 11.3 | 0.00 | 0.00 | 0.00 | 38 | 1007.1 |
| 20260505163419 | 22 | 146 | 3.2 | 11.3 | 0.00 | 0.00 | 0.00 | 38 | 1007.0 |
| 20260505163311 | 22 | 121 | 3.2 | 11.3 | 0.00 | 0.00 | 0.00 | 38 | 1007.0 |
| 20260505163209 | 22 | 136 | 3.2 | 11.3 | 0.00 | 0.00 | 0.00 | 37 | 1007.0 |
| 20260505163107 | 22 | 80 | 3.2 | 11.3 | 0.00 | 0.00 | 0.00 | 37 | 1007.0 |
| 20260505163017 | 22 | 167 | 1.6 | 11.3 | 0.00 | 0.00 | 0.00 | 38 | 1007.0 |
| 20260505162910 | 22 | 82 | 1.6 | 11.3 | 0.00 | 0.00 | 0.00 | 38 | 1007.0 |
| 20260505162809 | 22 | 128 | 1.6 | 11.3 | 0.00 | 0.00 | 0.00 | 38 | 1007.0 |
| 20260505162713 | 22 | 61 | 1.6 | 9.7 | 0.00 | 0.00 | 0.00 | 39 | 1007.5 |
| 20260505162616 | 22 | 63 | 0.0 | 9.7 | 0.00 | 0.00 | 0.00 | 40 | 1007.4 |
| 20260505162511 | 22 | 102 | 1.6 | 8.0 | 0.00 | 0.00 | 0.00 | 41 | 1007.4 |
| 20260505162403 | 22 | 119 | 1.6 | 8.0 | 0.00 | 0.00 | 0.00 | 41 | 1007.4 |
| 20260505162307 | 22 | 67 | 1.6 | 8.0 | 0.00 | 0.00 | 0.00 | 43 | 1007.4 |
| 20260505162157 | 22 | 155 | 1.6 | 8.0 | 0.00 | 0.00 | 0.00 | 43 | 1007.4 |
| 20260505162058 | 22 | 57 | 1.6 | 8.0 | 0.00 | 0.00 | 0.00 | 43 | 1007.4 |
| 20260505161958 | 22 | 91 | 3.2 | 9.7 | 0.00 | 0.00 | 0.00 | 44 | 1007.4 |
| 20260505161857 | 22 | 134 | 3.2 | 9.7 | 0.00 | 0.00 | 0.00 | 44 | 1007.4 |
| 20260505161756 | 22 | 136 | 3.2 | 11.3 | 0.00 | 0.00 | 0.00 | 44 | 1007.2 |
| 20260505161647 | 22 | 96 | 3.2 | 11.3 | 0.00 | 0.00 | 0.00 | 44 | 1007.2 |
| 20260505161545 | 22 | 186 | 3.2 | 11.3 | 0.00 | 0.00 | 0.00 | 43 | 1007.1 |
| 20260505161443 | 22 | 152 | 3.2 | 11.3 | 0.00 | 0.00 | 0.00 | 43 | 1007.1 |
| 20260505161336 | 22 | 39 | 3.2 | 11.3 | 0.00 | 0.00 | 0.00 | 42 | 1007.1 |
| 20260505161241 | 22 | 154 | 3.2 | 11.3 | 0.00 | 0.00 | 0.00 | 42 | 1007.1 |
| 20260505161136 | 22 | 114 | 3.2 | 11.3 | 0.00 | 0.00 | 0.00 | 42 | 1006.7 |
| 20260505161035 | 22 | 130 | 3.2 | 11.3 | 0.00 | 0.00 | 0.00 | 42 | 1006.7 |
| 20260505160940 | 22 | 120 | 3.2 | 11.3 | 0.00 | 0.00 | 0.00 | 41 | 1006.6 |
| 20260505160839 | 22 | 60 | 3.2 | 11.3 | 0.00 | 0.00 | 0.00 | 41 | 1006.6 |
| 20260505160739 | 22 | 118 | 1.6 | 8.0 | 0.00 | 0.00 | 0.00 | 42 | 1006.6 |
| 20260505160638 | 22 | 205 | 1.6 | 8.0 | 0.00 | 0.00 | 0.00 | 42 | 1006.6 |
| 20260505160536 | 22 | 86 | 1.6 | 8.0 | 0.00 | 0.00 | 0.00 | 41 | 1006.6 |
| 20260505160340 | 22 | 143 | 1.6 | 8.0 | 0.00 | 0.00 | 0.00 | 40 | 1006.6 |
| 20260505160234 | 22 | 147 | 1.6 | 8.0 | 0.00 | 0.00 | 0.00 | 40 | 1006.6 |
| 20260505160130 | 22 | 140 | 1.6 | 8.0 | 0.00 | 0.00 | 0.00 | 39 | 1006.6 |
| 20260505153341 | 21 | 98 | 0.0 | 4.8 | 0.00 | 0.00 | 0.00 | 42 | 1006.2 |
| 20260505153236 | 21 | 88 | 0.0 | 4.8 | 0.00 | 0.00 | 0.00 | 43 | 1006.4 |
| 20260505153134 | 21 | 87 | 0.0 | 1.6 | 0.00 | 0.00 | 0.00 | 42 | 1006.4 |
| 20260505153034 | 22 | 90 | 0.0 | 1.6 | 0.00 | 0.00 | 0.00 | 39 | 1006.4 |
| 20260505152930 | 22 | 64 | 0.0 | 1.6 | 0.00 | 0.00 | 0.00 | 38 | 1006.4 |
| 20260505152812 | 22 | 112 | 0.0 | 0.0 | 0.00 | 0.00 | 0.00 | 38 | 1006.4 |
| 20260505152713 | 22 | 106 | 0.0 | 0.0 | 0.00 | 0.00 | 0.00 | 38 | 1006.5 |
| 20260505152614 | 22 | 153 | 0.0 | 0.0 | 0.00 | 0.00 | 0.00 | 38 | 1006.5 |
| 20260505152516 | 22 | 154 | 0.0 | 0.0 | 0.00 | 0.00 | 0.00 | 37 | 1006.5 |
| 20260505152407 | 21 | 163 | 0.0 | 0.0 | 0.00 | 0.00 | 0.00 | 38 | 1006.5 |
| 20260505152310 | 21 | 163 | 0.0 | 0.0 | 0.00 | 0.00 | 0.00 | 37 | 1006.4 |
| 20260505152247 | 21 | 164 | 0.0 | 0.0 | 0.00 | 0.00 | 0.00 | 38 | 1006.4 |
| 20260505152057 | 21 | 161 | 0.0 | 0.0 | 0.00 | 0.00 | 0.00 | 38 | 1006.4 |
| 20260505151938 | 21 | 96 | 0.0 | 0.0 | 0.00 | 0.00 | 0.00 | 38 | 1006.2 |
| 20260505151841 | 21 | 96 | 0.0 | 0.0 | 0.00 | 0.00 | 0.00 | 37 | 1006.2 |
| 20260505151736 | 21 | 110 | 0.0 | 0.0 | 0.00 | 0.00 | 0.00 | 40 | 1006.4 |
| 20260505151633 | 21 | 107 | 0.0 | 0.0 | 0.00 | 0.00 | 0.00 | 39 | 1006.4 |
| 20260505151517 | 21 | 108 | 0.0 | 0.0 | 0.00 | 0.00 | 0.00 | 38 | 1006.2 |
| 20260505151414 | 21 | 108 | 0.0 | 0.0 | 0.00 | 0.00 | 0.00 | 37 | 1006.2 |
| 20260505151315 | 21 | 107 | 0.0 | 0.0 | 0.00 | 0.00 | 0.00 | 41 | 1006.4 |
| 20260505151211 | 21 | 148 | 0.0 | 0.0 | 0.00 | 0.00 | 0.00 | 41 | 1006.7 |
| 20260505151058 | 21 | 148 | 0.0 | 0.0 | 0.00 | 0.00 | 0.00 | 41 | 1006.6 |
| 20260505150942 | 21 | 149 | 0.0 | 0.0 | 0.00 | 0.00 | 0.00 | 41 | 1006.6 |
| 20260505150841 | 21 | 149 | 0.0 | 0.0 | 0.00 | 0.00 | 0.00 | 42 | 1006.6 |
| 20260505150736 | 21 | 149 | 0.0 | 0.0 | 0.00 | 0.00 | 0.00 | 44 | 1006.6 |
| 20260505150643 | 21 | 149 | 0.0 | 0.0 | 0.00 | 0.00 | 0.00 | 42 | 1006.6 |
| 20260505150543 | 21 | 148 | 0.0 | 0.0 | 0.00 | 0.00 | 0.00 | 42 | 1006.6 |
| 20260505150441 | 21 | 148 | 0.0 | 0.0 | 0.00 | 0.00 | 0.00 | 42 | 1006.6 |
| 20260505150340 | 21 | 149 | 0.0 | 0.0 | 0.00 | 0.00 | 0.00 | 43 | 1006.6 |
| 20260505150235 | 21 | 149 | 0.0 | 0.0 | 0.00 | 0.00 | 0.00 | 42 | 1006.5 |
| 20260505150112 | 21 | 149 | 0.0 | 0.0 | 0.00 | 0.00 | 0.00 | 43 | 1006.6 |
| 20260505140613 | 18 | 242 | 0.0 | 0.0 | 0.00 | 0.00 | 0.00 | 53 | 1005.8 |
| 20260505140503 | 18 | 194 | 0.0 | 0.0 | 0.00 | 0.00 | 0.00 | 52 | 1005.7 |
| 20260505140356 | 18 | 192 | 0.0 | 0.0 | 0.00 | 0.00 | 0.00 | 52 | 1005.7 |
| 20260505140246 | 18 | 192 | 0.0 | 0.0 | 0.00 | 0.00 | 0.00 | 52 | 1005.7 |
| 20260505140141 | 18 | 192 | 0.0 | 0.0 | 0.00 | 0.00 | 0.00 | 53 | 1005.7 |
| 20260505130242 | 16 | 244 | 0.0 | 1.6 | 0.00 | 0.00 | 0.00 | 61 | 1003.9 |
| 20260505130141 | 16 | 239 | 0.0 | 1.6 | 0.00 | 0.00 | 0.00 | 62 | 1003.9 |
| 20260505125002 | 16 | 290 | 0.0 | 1.6 | 0.00 | 0.00 | 0.00 | 62 | 1003.6 |
| 20260505124845 | 15 | 25 | 0.0 | 1.6 | 0.00 | 0.00 | 0.00 | 62 | 1003.5 |
| 20260505124744 | 15 | 40 | 0.0 | 1.6 | 0.00 | 0.00 | 0.00 | 61 | 1003.5 |
| 20260505124633 | 15 | 40 | 0.0 | 1.6 | 0.00 | 0.00 | 0.00 | 61 | 1003.5 |
| 20260505124536 | 15 | 40 | 0.0 | 1.6 | 0.00 | 0.00 | 0.00 | 61 | 1003.5 |
| 20260505124413 | 15 | 40 | 0.0 | 1.6 | 0.00 | 0.00 | 0.00 | 61 | 1003.5 |
| 20260505124310 | 15 | 40 | 0.0 | 1.6 | 0.00 | 0.00 | 0.00 | 61 | 1003.5 |
| 20260505124214 | 15 | 40 | 0.0 | 1.6 | 0.00 | 0.00 | 0.00 | 61 | 1003.5 |
| 20260505124102 | 15 | 40 | 0.0 | 1.6 | 0.00 | 0.00 | 0.00 | 61 | 1003.5 |
| 20260505123946 | 15 | 31 | 0.0 | 0.0 | 0.00 | 0.00 | 0.00 | 61 | 1003.5 |
| 20260505123845 | 15 | 11 | 0.0 | 6.4 | 0.00 | 0.00 | 0.00 | 61 | 1003.5 |
| 20260505123741 | 15 | 10 | 0.0 | 6.4 | 0.00 | 0.00 | 0.00 | 61 | 1003.5 |
| 20260505123641 | 15 | 10 | 0.0 | 6.4 | 0.00 | 0.00 | 0.00 | 60 | 1003.5 |
| 20260505123539 | 15 | 10 | 0.0 | 6.4 | 0.00 | 0.00 | 0.00 | 60 | 1003.5 |
| 20260505123438 | 15 | 91 | 0.0 | 6.4 | 0.00 | 0.00 | 0.00 | 61 | 1003.5 |
| 20260505123339 | 15 | 91 | 0.0 | 6.4 | 0.00 | 0.00 | 0.00 | 62 | 1003.5 |
| 20260505123233 | 15 | 79 | 0.0 | 6.4 | 0.00 | 0.00 | 0.00 | 62 | 1003.5 |
| 20260505123127 | 15 | 133 | 0.0 | 6.4 | 0.00 | 0.00 | 0.00 | 63 | 1003.5 |
| 20260505123031 | 15 | 207 | 0.0 | 6.4 | 0.00 | 0.00 | 0.00 | 63 | 1003.5 |
| 20260505122928 | 15 | 232 | 0.0 | 6.4 | 0.00 | 0.00 | 0.00 | 63 | 1003.5 |
| 20260505122813 | 15 | 239 | 0.0 | 3.2 | 0.00 | 0.00 | 0.00 | 63 | 1003.5 |
| 20260505122709 | 15 | 265 | 0.0 | 3.2 | 0.00 | 0.00 | 0.00 | 62 | 1003.4 |
| 20260505122610 | 15 | 274 | 0.0 | 0.0 | 0.00 | 0.00 | 0.00 | 62 | 1003.4 |
| 20260505122513 | 15 | 103 | 0.0 | 0.0 | 0.00 | 0.00 | 0.00 | 62 | 1003.4 |
| 20260505122402 | 15 | 103 | 0.0 | 0.0 | 0.00 | 0.00 | 0.00 | 62 | 1003.4 |
| 20260505122241 | 15 | 107 | 0.0 | 0.0 | 0.00 | 0.00 | 0.00 | 62 | 1003.4 |
| 20260505122139 | 15 | 92 | 0.0 | 0.0 | 0.00 | 0.00 | 0.00 | 62 | 1003.3 |
| 20260505122038 | 15 | 71 | 0.0 | 0.0 | 0.00 | 0.00 | 0.00 | 61 | 1003.4 |
| 20260505121941 | 15 | 71 | 0.0 | 0.0 | 0.00 | 0.00 | 0.00 | 62 | 1003.4 |
| 20260505121845 | 15 | 71 | 0.0 | 0.0 | 0.00 | 0.00 | 0.00 | 62 | 1003.4 |
| 20260505121736 | 15 | 71 | 0.0 | 0.0 | 0.00 | 0.00 | 0.00 | 62 | 1003.4 |
| 20260505121636 | 15 | 71 | 0.0 | 0.0 | 0.00 | 0.00 | 0.00 | 62 | 1003.4 |
| 20260505121531 | 15 | 56 | 0.0 | 0.0 | 0.00 | 0.00 | 0.00 | 62 | 1003.4 |
| 20260505121429 | 15 | 58 | 0.0 | 0.0 | 0.00 | 0.00 | 0.00 | 60 | 1003.4 |
| 20260505121331 | 15 | 241 | 0.0 | 0.0 | 0.00 | 0.00 | 0.00 | 60 | 1003.4 |
| 20260505121209 | 15 | 240 | 0.0 | 0.0 | 0.00 | 0.00 | 0.00 | 60 | 1002.7 |
| 20260505121110 | 15 | 240 | 0.0 | 0.0 | 0.00 | 0.00 | 0.00 | 60 | 1002.7 |
| 20260505121018 | 15 | 240 | 0.0 | 0.0 | 0.00 | 0.00 | 0.00 | 60 | 1002.7 |
| 20260505120914 | 15 | 240 | 0.0 | 0.0 | 0.00 | 0.00 | 0.00 | 60 | 1002.7 |
| 20260505120802 | 15 | 241 | 0.0 | 0.0 | 0.00 | 0.00 | 0.00 | 60 | 1002.7 |
| 20260505120638 | 15 | 240 | 0.0 | 0.0 | 0.00 | 0.00 | 0.00 | 60 | 1002.7 |
| 20260505120535 | 15 | 240 | 0.0 | 0.0 | 0.00 | 0.00 | 0.00 | 60 | 1002.7 |
| 20260505120441 | 15 | 241 | 0.0 | 0.0 | 0.00 | 0.00 | 0.00 | 59 | 1002.7 |
| 20260505120352 | 15 | 240 | 0.0 | 0.0 | 0.00 | 0.00 | 0.00 | 59 | 1002.7 |
| 20260505120307 | 15 | 240 | 0.0 | 0.0 | 0.00 | 0.00 | 0.00 | 59 | 1002.7 |
| 20260505120139 | 15 | 242 | 0.0 | 0.0 | 0.00 | 0.00 | 0.00 | 59 | 1002.7 |
| 20260505120034 | 16 | 242 | 0.0 | 0.0 | 0.00 | 0.00 | 0.00 | 59 | 1002.8 |
| 20260505115933 | 16 | 242 | 0.0 | 0.0 | 0.00 | 0.00 | 0.00 | 58 | 1002.8 |
| 20260505115838 | 16 | 119 | 0.0 | 0.0 | 0.00 | 0.00 | 0.00 | 58 | 1002.8 |
| 20260505115729 | 16 | 119 | 0.0 | 0.0 | 0.00 | 0.00 | 0.00 | 59 | 1002.7 |
| 20260505115616 | 16 | 119 | 0.0 | 0.0 | 0.00 | 0.00 | 0.00 | 58 | 1002.7 |
| 20260505115512 | 16 | 119 | 0.0 | 0.0 | 0.00 | 0.00 | 0.00 | 58 | 1002.7 |
| 20260505115347 | 16 | 119 | 0.0 | 0.0 | 0.00 | 0.00 | 0.00 | 58 | 1002.7 |
| 20260505115255 | 16 | 119 | 0.0 | 0.0 | 0.00 | 0.00 | 0.00 | 58 | 1002.7 |
| 20260505115143 | 16 | 119 | 0.0 | 0.0 | 0.00 | 0.00 | 0.00 | 58 | 1002.7 |
| 20260505115043 | 16 | 119 | 0.0 | 0.0 | 0.00 | 0.00 | 0.00 | 58 | 1002.7 |
| 20260505114939 | 16 | 119 | 0.0 | 0.0 | 0.00 | 0.00 | 0.00 | 57 | 1002.7 |
| 20260505114842 | 16 | 119 | 0.0 | 0.0 | 0.00 | 0.00 | 0.00 | 57 | 1002.7 |
| 20260505114741 | 16 | 119 | 0.0 | 0.0 | 0.00 | 0.00 | 0.00 | 57 | 1002.7 |
| 20260505114619 | 16 | 119 | 0.0 | 0.0 | 0.00 | 0.00 | 0.00 | 57 | 1002.7 |
| 20260505114513 | 16 | 119 | 0.0 | 0.0 | 0.00 | 0.00 | 0.00 | 57 | 1002.7 |
| 20260505114416 | 16 | 119 | 0.0 | 0.0 | 0.00 | 0.00 | 0.00 | 57 | 1002.7 |
| 20260505114310 | 16 | 119 | 0.0 | 0.0 | 0.00 | 0.00 | 0.00 | 56 | 1002.7 |
| 20260505114214 | 16 | 119 | 0.0 | 0.0 | 0.00 | 0.00 | 0.00 | 56 | 1002.6 |
| 20260505114111 | 16 | 119 | 0.0 | 0.0 | 0.00 | 0.00 | 0.00 | 56 | 1002.6 |
| 20260505113942 | 16 | 119 | 0.0 | 1.6 | 0.00 | 0.00 | 0.00 | 56 | 1002.6 |
| 20260505113841 | 16 | 119 | 0.0 | 1.6 | 0.00 | 0.00 | 0.00 | 56 | 1002.6 |
| 20260505113739 | 16 | 119 | 0.0 | 1.6 | 0.00 | 0.00 | 0.00 | 56 | 1002.6 |
| 20260505113634 | 16 | 119 | 0.0 | 1.6 | 0.00 | 0.00 | 0.00 | 55 | 1002.6 |
| 20260505113511 | 16 | 119 | 0.0 | 1.6 | 0.00 | 0.00 | 0.00 | 55 | 1002.6 |
| 20260505113359 | 16 | 132 | 0.0 | 1.6 | 0.00 | 0.00 | 0.00 | 55 | 1002.6 |
| 20260505113301 | 16 | 134 | 0.0 | 1.6 | 0.00 | 0.00 | 0.00 | 55 | 1002.6 |
| 20260505113146 | 16 | 101 | 0.0 | 1.6 | 0.00 | 0.00 | 0.00 | 55 | 1002.6 |
| 20260505113039 | 16 | 95 | 0.0 | 1.6 | 0.00 | 0.00 | 0.00 | 55 | 1002.6 |
| 20260505112937 | 16 | 103 | 0.0 | 1.6 | 0.00 | 0.00 | 0.00 | 55 | 1002.6 |
| 20260505112842 | 16 | 47 | 0.0 | 1.6 | 0.00 | 0.00 | 0.00 | 55 | 1002.6 |
| 20260505112721 | 16 | 71 | 0.0 | 3.2 | 0.00 | 0.00 | 0.00 | 55 | 1002.6 |
| 20260505112624 | 16 | 86 | 0.0 | 3.2 | 0.00 | 0.00 | 0.00 | 55 | 1002.6 |
| 20260505112512 | 16 | 90 | 0.0 | 3.2 | 0.00 | 0.00 | 0.00 | 54 | 1002.6 |
| 20260505112410 | 16 | 90 | 0.0 | 3.2 | 0.00 | 0.00 | 0.00 | 54 | 1002.6 |
| 20260505112304 | 16 | 54 | 0.0 | 3.2 | 0.00 | 0.00 | 0.00 | 54 | 1002.6 |
| 20260505112208 | 16 | 63 | 0.0 | 3.2 | 0.00 | 0.00 | 0.00 | 54 | 1002.6 |
| 20260505112042 | 16 | 65 | 0.0 | 3.2 | 0.00 | 0.00 | 0.00 | 54 | 1002.6 |
| 20260505111934 | 16 | 28 | 0.0 | 3.2 | 0.00 | 0.00 | 0.00 | 54 | 1002.6 |
| 20260505111837 | 16 | 43 | 0.0 | 3.2 | 0.00 | 0.00 | 0.00 | 54 | 1002.6 |
| 20260505111800 | 16 | 46 | 0.0 | 0.0 | 0.00 | 0.00 | 0.00 | 54 | 1002.6 |
| 20260505111650 | 16 | 34 | 0.0 | 0.0 | 0.00 | 0.00 | 0.00 | 53 | 1002.6 |
| 20260505111552 | 16 | 344 | 0.0 | 0.0 | 0.00 | 0.00 | 0.00 | 53 | 1002.6 |
| 20260505111447 | 16 | 342 | 0.0 | 0.0 | 0.00 | 0.00 | 0.00 | 53 | 1002.6 |
| 20260505111343 | 16 | 343 | 0.0 | 0.0 | 0.00 | 0.00 | 0.00 | 53 | 1002.6 |
| 20260505111251 | 16 | 343 | 0.0 | 0.0 | 0.00 | 0.00 | 0.00 | 54 | 1002.6 |
| 20260505111204 | 16 | 343 | 0.0 | 0.0 | 0.00 | 0.00 | 0.00 | 54 | 1002.6 |
| 20260505111041 | 16 | 304 | 0.0 | 0.0 | 0.00 | 0.00 | 0.00 | 52 | 1002.5 |
| 20260505110930 | 16 | 304 | 0.0 | 0.0 | 0.00 | 0.00 | 0.00 | 52 | 1002.5 |
| 20260505110822 | 16 | 304 | 0.0 | 0.0 | 0.00 | 0.00 | 0.00 | 52 | 1002.5 |
| 20260505110712 | 16 | 304 | 0.0 | 0.0 | 0.00 | 0.00 | 0.00 | 52 | 1002.6 |
| 20260505110653 | 16 | 304 | 0.0 | 0.0 | 0.00 | 0.00 | 0.00 | 51 | 1002.6 |
| 20260505110632 | 16 | 304 | 0.0 | 0.0 | 0.00 | 0.00 | 0.00 | 51 | 1002.5 |
| 20260505110608 | 16 | 304 | 0.0 | 0.0 | 0.00 | 0.00 | 0.00 | 51 | 1002.6 |
| 20260505110229 | 16 | 304 | 0.0 | 0.0 | 0.00 | 0.00 | 0.00 | 51 | 1002.6 |
| 20260505110135 | 16 | 304 | 0.0 | 0.0 | 0.00 | 0.00 | 0.00 | 51 | 1002.6 |
| 20260505102115 | 17 | 71 | 0.0 | 0.0 | 0.00 | 0.00 | 0.00 | 44 | 1002.8 |
| 20260505102017 | 17 | 229 | 0.0 | 1.6 | 0.00 | 0.00 | 0.00 | 44 | 1002.8 |
| 20260505101915 | 17 | 230 | 0.0 | 1.6 | 0.00 | 0.00 | 0.00 | 43 | 1002.8 |
| 20260505101815 | 17 | 230 | 0.0 | 1.6 | 0.00 | 0.00 | 0.00 | 43 | 1002.8 |
| 20260505101715 | 17 | 230 | 0.0 | 1.6 | 0.00 | 0.00 | 0.00 | 43 | 1002.8 |
| 20260505101610 | 17 | 230 | 0.0 | 1.6 | 0.00 | 0.00 | 0.00 | 42 | 1002.8 |
| 20260505101515 | 17 | 230 | 0.0 | 1.6 | 0.00 | 0.00 | 0.00 | 42 | 1002.9 |
| 20260505101416 | 17 | 230 | 0.0 | 1.6 | 0.00 | 0.00 | 0.00 | 43 | 1002.9 |
| 20260505101314 | 17 | 210 | 0.0 | 1.6 | 0.00 | 0.00 | 0.00 | 42 | 1002.9 |
| 20260505101159 | 17 | 211 | 0.0 | 1.6 | 0.00 | 0.00 | 0.00 | 42 | 1002.2 |
| 20260505101039 | 17 | 252 | 0.0 | 1.6 | 0.00 | 0.00 | 0.00 | 42 | 1002.2 |
| 20260505100938 | 17 | 244 | 0.0 | 1.6 | 0.00 | 0.00 | 0.00 | 42 | 1002.2 |
| 20260505100842 | 17 | 229 | 0.0 | 1.6 | 0.00 | 0.00 | 0.00 | 42 | 1002.2 |
| 20260505100736 | 17 | 204 | 0.0 | 1.6 | 0.00 | 0.00 | 0.00 | 42 | 1002.2 |
| 20260505100642 | 18 | 218 | 0.0 | 1.6 | 0.00 | 0.00 | 0.00 | 42 | 1002.3 |
| 20260505100539 | 18 | 191 | 0.0 | 1.6 | 0.00 | 0.00 | 0.00 | 42 | 1002.3 |
| 20260505100445 | 18 | 222 | 0.0 | 1.6 | 0.00 | 0.00 | 0.00 | 41 | 1002.3 |
| 20260505100341 | 17 | 223 | 0.0 | 1.6 | 0.00 | 0.00 | 0.00 | 41 | 1002.2 |
| 20260505100242 | 17 | 226 | 0.0 | 1.6 | 0.00 | 0.00 | 0.00 | 41 | 1002.2 |
| 20260505100137 | 17 | 264 | 0.0 | 1.6 | 0.00 | 0.00 | 0.00 | 43 | 1002.2 |
| 20260505100013 | 17 | 225 | 0.0 | 1.6 | 0.00 | 0.00 | 0.00 | 43 | 1002.2 |
| 20260505095920 | 17 | 200 | 0.0 | 1.6 | 0.00 | 0.00 | 0.00 | 43 | 1002.2 |
| 20260505095822 | 18 | 221 | 0.0 | 1.6 | 0.00 | 0.00 | 0.00 | 42 | 1002.3 |
| 20260505095721 | 18 | 221 | 0.0 | 1.6 | 0.00 | 0.00 | 0.00 | 42 | 1002.4 |
| 20260505095611 | 18 | 221 | 0.0 | 1.6 | 0.00 | 0.00 | 0.00 | 41 | 1002.4 |
| 20260505095510 | 18 | 223 | 0.0 | 1.6 | 0.00 | 0.00 | 0.00 | 41 | 1002.4 |
| 20260505095407 | 18 | 113 | 0.0 | 1.6 | 0.00 | 0.00 | 0.00 | 41 | 1002.5 |
| 20260505095305 | 18 | 105 | 0.0 | 1.6 | 0.00 | 0.00 | 0.00 | 42 | 1002.5 |
| 20260505095200 | 18 | 105 | 0.0 | 1.6 | 0.00 | 0.00 | 0.00 | 41 | 1002.5 |
| 20260505095053 | 18 | 100 | 0.0 | 1.6 | 0.00 | 0.00 | 0.00 | 41 | 1002.5 |
| 20260505094951 | 18 | 88 | 0.0 | 0.0 | 0.00 | 0.00 | 0.00 | 41 | 1002.5 |
| 20260505094848 | 18 | 98 | 0.0 | 0.0 | 0.00 | 0.00 | 0.00 | 40 | 1002.5 |
| 20260505094752 | 18 | 96 | 0.0 | 0.0 | 0.00 | 0.00 | 0.00 | 40 | 1002.5 |
| 20260505094641 | 18 | 97 | 0.0 | 0.0 | 0.00 | 0.00 | 0.00 | 40 | 1002.5 |
| 20260505094541 | 18 | 98 | 0.0 | 0.0 | 0.00 | 0.00 | 0.00 | 40 | 1002.5 |
| 20260505094442 | 18 | 240 | 0.0 | 0.0 | 0.00 | 0.00 | 0.00 | 40 | 1002.6 |
| 20260505094340 | 18 | 242 | 0.0 | 0.0 | 0.00 | 0.00 | 0.00 | 40 | 1002.6 |
| 20260505094238 | 18 | 242 | 0.0 | 1.6 | 0.00 | 0.00 | 0.00 | 40 | 1002.6 |
| 20260505094137 | 18 | 242 | 0.0 | 3.2 | 0.00 | 0.00 | 0.00 | 39 | 1002.3 |
| 20260505094042 | 18 | 242 | 0.0 | 3.2 | 0.00 | 0.00 | 0.00 | 39 | 1002.3 |
| 20260505093912 | 18 | 242 | 0.0 | 8.0 | 0.00 | 0.00 | 0.00 | 39 | 1002.3 |
| 20260505093814 | 18 | 242 | 0.0 | 8.0 | 0.00 | 0.00 | 0.00 | 39 | 1002.3 |
| 20260505093710 | 18 | 242 | 1.6 | 8.0 | 0.00 | 0.00 | 0.00 | 39 | 1002.3 |
| 20260505093620 | 18 | 242 | 1.6 | 8.0 | 0.00 | 0.00 | 0.00 | 38 | 1002.4 |
| 20260505093514 | 18 | 242 | 1.6 | 8.0 | 0.00 | 0.00 | 0.00 | 38 | 1002.4 |
| 20260505093409 | 18 | 221 | 1.6 | 8.0 | 0.00 | 0.00 | 0.00 | 38 | 1002.4 |
| 20260505093316 | 18 | 246 | 1.6 | 8.0 | 0.00 | 0.00 | 0.00 | 38 | 1002.4 |
| 20260505093214 | 18 | 265 | 1.6 | 8.0 | 0.00 | 0.00 | 0.00 | 38 | 1002.4 |
| 20260505093040 | 18 | 229 | 1.6 | 8.0 | 0.00 | 0.00 | 0.00 | 38 | 1002.5 |
| 20260505092936 | 19 | 216 | 1.6 | 11.3 | 0.00 | 0.00 | 0.00 | 37 | 1002.5 |
| 20260505092838 | 19 | 230 | 1.6 | 11.3 | 0.00 | 0.00 | 0.00 | 37 | 1002.5 |